GFSMW_500_temp_183.txt.gz
Temp
-11 -11 -12 -12 -12 -12 -12 -13 -13 -13 -13 -13 -13 -13 -13 -13 -13 -13 -14 -14 -15 -14 -14 -14 -14 -14 -15 -15 -15 -15 -15 -15 -15 -15 -14 -14 -14 -14 -14 -14 -14 -14 -14
-11 -12 -12 -12 -12 -13 -13 -13 -14 -14 -14 -14 -14 -14 -13 -14 -14 -14 -14 -14 -15 -15 -15 -15 -15 -15 -15 -15 -15 -15 -15 -15 -15 -15 -15 -15 -15 -15 -15 -15 -15 -14 -14
-12 -12 -12 -13 -13 -14 -14 -14 -14 -14 -15 -15 -15 -15 -15 -14 -14 -14 -14 -15 -15 -15 -15 -15 -15 -15 -15 -15 -15 -15 -15 -15 -16 -16 -16 -16 -15 -15 -15 -15 -16 -15 -15
-12 -12 -12 -13 -14 -14 -15 -15 -15 -15 -15 -15 -15 -15 -15 -15 -15 -15 -15 -15 -15 -15 -15 -15 -16 -16 -16 -16 -16 -16 -16 -16 -16 -16 -16 -16 -16 -16 -16 -16 -16 -16 -16
-12 -13 -13 -13 -14 -14 -14 -14 -15 -15 -16 -16 -16 -16 -16 -16 -16 -16 -16 -16 -16 -16 -16 -16 -16 -16 -16 -17 -17 -17 -17 -16 -16 -16 -16 -16 -16 -16 -16 -16 -17 -17 -18
-13 -14 -14 -15 -15 -16 -16 -15 -15 -15 -16 -16 -16 -16 -17 -17 -17 -17 -17 -17 -17 -17 -17 -17 -17 -17 -17 -17 -17 -18 -17 -17 -17 -17 -17 -17 -16 -16 -16 -16 -16 -17 -18
-14 -15 -15 -16 -16 -16 -16 -16 -16 -16 -16 -16 -17 -16 -16 -17 -17 -17 -17 -17 -17 -17 -17 -17 -17 -17 -17 -17 -17 -17 -17 -17 -17 -17 -17 -17 -16 -16 -16 -16 -16 -16 -18
-15 -15 -15 -16 -16 -17 -17 -17 -17 -17 -17 -17 -17 -17 -17 -16 -17 -17 -18 -17 -17 -17 -17 -17 -17 -17 -17 -18 -18 -18 -18 -18 -18 -18 -18 -17 -17 -17 -17 -17 -17 -17 -17
-15 -15 -15 -16 -16 -17 -18 -17 -17 -18 -18 -18 -18 -18 -18 -17 -17 -17 -17 -17 -17 -18 -17 -17 -18 -18 -18 -19 -19 -19 -18 -18 -18 -18 -18 -18 -18 -18 -18 -18 -18 -18 -18
-16 -16 -16 -17 -17 -18 -18 -18 -18 -18 -18 -18 -18 -18 -18 -18 -19 -19 -18 -18 -18 -18 -18 -19 -19 -19 -19 -19 -19 -18 -18 -18 -18 -19 -19 -19 -19 -20 -20 -20 -20 -20 -19
-17 -18 -18 -18 -18 -18 -18 -18 -18 -18 -18 -18 -19 -18 -18 -18 -18 -18 -18 -18 -18 -18 -19 -19 -20 -19 -19 -19 -19 -19 -19 -19 -20 -20 -20 -20 -21 -21 -21 -21 -22 -22 -22
-18 -18 -18 -18 -18 -19 -19 -19 -18 -18 -19 -19 -18 -19 -18 -18 -18 -18 -18 -18 -19 -19 -19 -20 -20 -19 -19 -19 -19 -19 -20 -20 -21 -20 -20 -21 -21 -21 -22 -23 -23 -23 -23
-21 -19 -18 -18 -19 -19 -19 -19 -19 -20 -19 -19 -19 -18 -19 -19 -18 -18 -19 -20 -19 -20 -20 -20 -20 -19 -20 -20 -20 -21 -21 -21 -21 -21 -22 -22 -22 -23 -23 -23 -23 -23 -23
-21 -21 -20 -20 -20 -19 -20 -20 -20 -20 -20 -20 -20 -19 -19 -19 -20 -20 -20 -21 -20 -20 -20 -20 -20 -20 -21 -21 -21 -21 -21 -22 -22 -22 -22 -22 -24 -24 -24 -24 -24 -24 -24
-22 -22 -21 -21 -21 -21 -21 -21 -21 -21 -21 -20 -20 -20 -20 -21 -21 -21 -21 -21 -21 -21 -21 -21 -21 -21 -22 -22 -22 -22 -22 -22 -22 -22 -23 -24 -24 -24 -24 -24 -24 -24 -24
-23 -23 -23 -22 -22 -22 -21 -21 -21 -21 -21 -21 -21 -22 -22 -22 -22 -21 -21 -21 -21 -21 -22 -22 -22 -22 -22 -22 -22 -23 -22 -22 -22 -23 -24 -24 -25 -25 -25 -25 -24 -24 -24
-24 -24 -24 -24 -23 -23 -22 -22 -22 -21 -21 -21 -22 -22 -22 -22 -22 -22 -22 -22 -22 -22 -22 -22 -23 -22 -23 -22 -23 -23 -23 -23 -24 -25 -25 -25 -25 -25 -25 -25 -25 -25 -25
-25 -24 -25 -24 -24 -23 -23 -23 -23 -22 -22 -22 -22 -22 -22 -22 -22 -22 -22 -22 -22 -22 -23 -23 -23 -23 -22 -22 -22 -23 -23 -24 -25 -25 -25 -25 -25 -25 -25 -25 -25 -25 -25
-26 -25 -25 -25 -25 -24 -25 -24 -24 -24 -23 -23 -23 -23 -23 -23 -23 -23 -23 -23 -23 -23 -23 -23 -23 -23 -23 -23 -23 -24 -24 -25 -26 -26 -26 -26 -25 -25 -25 -25 -25 -25 -25
-26 -26 -26 -25 -25 -25 -25 -25 -25 -24 -24 -23 -23 -23 -23 -23 -23 -23 -23 -23 -23 -24 -23 -23 -23 -24 -24 -24 -24 -25 -26 -26 -26 -26 -26 -26 -26 -26 -26 -25 -25 -25 -26
-26 -26 -26 -26 -25 -25 -25 -25 -25 -25 -24 -24 -24 -23 -24 -23 -23 -23 -23 -23 -24 -24 -24 -24 -24 -24 -24 -25 -25 -26 -26 -26 -26 -26 -26 -26 -26 -26 -26 -25 -25 -26 -26
-26 -26 -26 -25 -25 -25 -25 -25 -24 -24 -24 -24 -24 -24 -24 -24 -24 -24 -24 -24 -24 -24 -24 -24 -25 -25 -25 -25 -26 -26 -27 -27 -27 -27 -26 -26 -26 -26 -26 -26 -26 -27 -26
-27 -26 -26 -26 -26 -25 -25 -26 -25 -25 -25 -25 -24 -24 -24 -24 -25 -25 -24 -25 -25 -25 -25 -25 -25 -26 -26 -26 -27 -27 -27 -27 -27 -27 -26 -26 -26 -26 -27 -27 -27 -27 -27
-27 -27 -27 -26 -26 -26 -26 -26 -26 -26 -26 -25 -25 -25 -25 -25 -25 -25 -25 -25 -25 -26 -25 -26 -26 -26 -27 -27 -27 -27 -27 -27 -27 -27 -27 -27 -27 -27 -28 -28 -28 -28 -28
-27 -27 -27 -26 -26 -26 -26 -26 -26 -26 -26 -26 -26 -26 -26 -25 -25 -25 -26 -26 -26 -26 -26 -26 -27 -27 -27 -27 -28 -28 -28 -27 -27 -27 -28 -28 -28 -28 -29 -29 -29 -30 -30
-27 -27 -26 -26 -26 -26 -26 -26 -26 -26 -26 -26 -26 -26 -26 -26 -26 -26 -26 -26 -26 -26 -27 -27 -28 -28 -28 -28 -28 -28 -28 -28 -28 -28 -28 -29 -29 -29 -30 -30 -31 -31 -32

GFSMW_500_temp_186.txt.gz
Temp
-11 -11 -11 -11 -11 -11 -12 -12 -12 -12 -12 -12 -12 -12 -12 -12 -13 -13 -13 -13 -13 -13 -13 -13 -14 -14 -14 -14 -14 -14 -14 -14 -14 -15 -15 -15 -15 -15 -14 -14 -14 -14 -14
-11 -11 -12 -12 -12 -12 -12 -12 -12 -12 -12 -12 -13 -13 -13 -13 -13 -13 -13 -13 -14 -14 -14 -14 -14 -14 -14 -14 -15 -15 -15 -15 -15 -15 -15 -15 -15 -15 -15 -15 -15 -15 -15
-11 -11 -12 -12 -12 -12 -13 -13 -13 -13 -13 -13 -13 -14 -14 -14 -14 -14 -14 -14 -14 -14 -15 -15 -15 -15 -15 -15 -15 -15 -15 -16 -16 -16 -16 -16 -16 -16 -16 -15 -15 -15 -15
-12 -12 -12 -12 -13 -13 -13 -13 -13 -13 -14 -14 -14 -14 -15 -15 -15 -15 -15 -15 -16 -16 -16 -16 -15 -15 -16 -16 -16 -16 -16 -16 -16 -17 -16 -16 -16 -16 -16 -16 -16 -16 -16
-12 -13 -13 -13 -13 -13 -13 -14 -14 -14 -14 -14 -14 -15 -15 -15 -15 -16 -16 -16 -17 -17 -17 -17 -16 -16 -16 -16 -16 -17 -17 -17 -17 -17 -17 -17 -17 -17 -17 -18 -18 -17 -17
-13 -13 -13 -13 -13 -14 -14 -14 -14 -15 -15 -15 -15 -15 -16 -16 -16 -16 -16 -16 -16 -16 -16 -17 -16 -17 -17 -17 -16 -17 -17 -17 -17 -17 -17 -17 -17 -17 -17 -17 -17 -17 -17
-14 -13 -14 -14 -15 -15 -15 -15 -15 -15 -15 -15 -16 -16 -16 -15 -15 -16 -16 -16 -16 -16 -16 -17 -17 -17 -17 -17 -17 -17 -17 -18 -18 -18 -18 -18 -18 -18 -18 -18 -17 -18 -18
-14 -14 -14 -14 -15 -15 -16 -16 -16 -16 -16 -16 -16 -17 -16 -16 -16 -16 -16 -16 -16 -17 -17 -17 -17 -17 -17 -17 -17 -17 -18 -18 -18 -18 -18 -18 -18 -17 -17 -17 -17 -17 -18
-14 -14 -14 -14 -15 -16 -16 -16 -16 -17 -17 -17 -17 -17 -17 -17 -17 -16 -17 -17 -16 -17 -17 -17 -17 -18 -18 -18 -18 -19 -18 -18 -18 -18 -18 -18 -18 -18 -18 -17 -17 -17 -18
-15 -16 -16 -15 -15 -16 -16 -17 -17 -18 -18 -18 -18 -17 -17 -17 -17 -17 -17 -17 -16 -17 -18 -17 -17 -18 -18 -18 -19 -20 -19 -19 -18 -18 -18 -18 -18 -18 -19 -20 -20 -20 -19
-17 -17 -17 -17 -17 -16 -17 -17 -18 -18 -18 -18 -18 -18 -18 -18 -18 -18 -18 -17 -17 -17 -17 -17 -18 -18 -19 -19 -20 -19 -19 -19 -18 -19 -19 -19 -19 -20 -20 -20 -21 -21 -21
-19 -18 -18 -17 -17 -17 -18 -18 -18 -18 -18 -18 -18 -18 -18 -19 -19 -18 -17 -17 -17 -18 -18 -18 -19 -19 -19 -20 -19 -19 -19 -19 -19 -20 -20 -20 -21 -21 -21 -21 -22 -22 -22
-20 -19 -19 -18 -18 -18 -18 -19 -18 -18 -18 -19 -19 -19 -19 -20 -19 -19 -19 -19 -18 -18 -18 -19 -19 -20 -20 -20 -19 -19 -20 -20 -20 -21 -21 -22 -22 -22 -22 -22 -22 -23 -24
-21 -20 -20 -20 -20 -21 -21 -20 -19 -19 -19 -19 -19 -19 -19 -20 -19 -19 -19 -19 -19 -19 -20 -20 -20 -20 -20 -20 -20 -20 -20 -21 -21 -22 -22 -22 -22 -22 -22 -23 -23 -24 -24
-21 -22 -21 -22 -21 -21 -20 -21 -21 -20 -20 -20 -20 -20 -20 -19 -20 -20 -20 -20 -21 -20 -20 -21 -21 -21 -20 -20 -21 -21 -21 -22 -22 -22 -22 -22 -22 -23 -23 -23 -25 -25 -25
-23 -23 -24 -24 -24 -23 -22 -22 -21 -21 -21 -21 -21 -21 -20 -21 -21 -21 -21 -21 -21 -21 -21 -22 -21 -21 -21 -21 -21 -22 -22 -22 -22 -22 -23 -23 -24 -24 -23 -25 -25 -25 -25
-24 -24 -24 -24 -24 -24 -23 -22 -22 -22 -21 -21 -21 -21 -21 -22 -22 -22 -22 -22 -22 -22 -22 -22 -22 -22 -22 -22 -22 -22 -22 -23 -23 -23 -23 -24 -24 -24 -25 -25 -25 -25 -25
-25 -25 -25 -25 -25 -24 -24 -24 -23 -23 -22 -21 -21 -22 -22 -22 -22 -22 -22 -22 -22 -22 -22 -22 -23 -23 -23 -23 -22 -23 -23 -23 -23 -23 -24 -24 -25 -25 -26 -26 -26 -26 -26
-26 -26 -26 -25 -25 -25 -25 -24 -24 -23 -23 -22 -22 -22 -22 -23 -23 -22 -22 -22 -23 -23 -23 -23 -23 -23 -23 -23 -23 -23 -23 -24 -24 -24 -24 -25 -26 -26 -26 -26 -26 -26 -26
-26 -26 -26 -26 -26 -25 -25 -25 -25 -24 -24 -24 -24 -23 -23 -23 -23 -23 -23 -23 -23 -23 -23 -23 -23 -23 -23 -23 -23 -23 -24 -24 -24 -24 -25 -26 -26 -26 -26 -26 -26 -26 -26
-26 -26 -26 -26 -26 -25 -25 -25 -25 -25 -25 -25 -25 -25 -24 -24 -24 -23 -23 -23 -23 -23 -23 -23 -23 -24 -24 -24 -24 -24 -24 -24 -25 -26 -26 -27 -27 -27 -27 -27 -26 -26 -26
-27 -27 -27 -26 -26 -26 -25 -25 -25 -25 -26 -25 -25 -25 -25 -24 -23 -23 -23 -23 -24 -24 -24 -24 -24 -24 -25 -25 -25 -25 -25 -25 -26 -27 -27 -27 -27 -27 -27 -27 -27 -27 -27
-28 -28 -27 -27 -26 -26 -25 -25 -25 -25 -25 -25 -25 -25 -25 -24 -24 -24 -24 -24 -24 -24 -24 -24 -25 -25 -25 -25 -25 -25 -26 -26 -27 -27 -27 -27 -27 -27 -27 -27 -27 -27 -28
-28 -28 -27 -27 -26 -26 -26 -26 -26 -26 -26 -26 -26 -25 -25 -24 -24 -24 -24 -25 -25 -25 -25 -25 -25 -26 -25 -26 -26 -26 -27 -28 -28 -28 -28 -28 -28 -28 -28 -28 -28 -28 -28
-28 -28 -27 -27 -26 -27 -26 -26 -26 -26 -26 -26 -26 -26 -26 -26 -25 -25 -25 -25 -25 -25 -26 -26 -26 -26 -26 -26 -27 -27 -28 -28 -28 -28 -28 -28 -28 -28 -29 -29 -29 -29 -29
-28 -28 -27 -27 -27 -26 -26 -26 -26 -26 -26 -26 -26 -26 -26 -26 -26 -26 -26 -26 -26 -26 -26 -26 -26 -26 -27 -27 -28 -28 -28 -29 -29 -28 -29 -29 -29 -29 -29 -29 -30 -30 -30

GFSMW_500_temp_189.txt.gz
Temp
-11 -11 -11 -11 -12 -11 -11 -11 -11 -11 -11 -12 -12 -12 -12 -12 -12 -12 -12 -12 -12 -12 -12 -13 -13 -13 -13 -13 -13 -13 -13 -13 -14 -14 -14 -14 -14 -14 -14 -14 -14 -14 -14
-11 -11 -11 -11 -11 -12 -11 -11 -11 -11 -11 -12 -12 -12 -12 -12 -12 -13 -13 -13 -13 -13 -13 -13 -14 -14 -14 -14 -14 -14 -14 -14 -14 -15 -15 -15 -15 -15 -15 -15 -15 -15 -15
-11 -11 -11 -11 -11 -12 -12 -12 -12 -12 -12 -12 -12 -12 -12 -13 -13 -13 -13 -14 -13 -13 -14 -14 -14 -14 -14 -14 -15 -15 -15 -15 -15 -15 -15 -15 -15 -15 -16 -16 -16 -16 -16
-11 -12 -12 -11 -11 -12 -12 -12 -12 -13 -13 -13 -13 -13 -13 -13 -13 -13 -14 -14 -14 -14 -14 -14 -14 -14 -15 -15 -15 -15 -15 -16 -16 -16 -16 -16 -16 -16 -15 -16 -16 -16 -16
-12 -12 -12 -12 -12 -13 -12 -13 -13 -13 -13 -13 -13 -14 -14 -14 -14 -14 -14 -14 -15 -15 -15 -15 -14 -15 -16 -15 -16 -16 -16 -16 -16 -16 -16 -16 -17 -17 -17 -17 -17 -17 -17
-12 -12 -12 -12 -12 -12 -13 -13 -13 -13 -14 -14 -14 -14 -15 -15 -15 -15 -15 -15 -15 -15 -15 -15 -15 -15 -16 -16 -16 -16 -17 -17 -17 -17 -17 -17 -16 -17 -18 -17 -17 -17 -17
-12 -13 -13 -13 -13 -13 -13 -13 -14 -14 -14 -15 -15 -15 -15 -15 -15 -16 -16 -16 -15 -15 -15 -15 -15 -16 -16 -16 -16 -17 -17 -17 -17 -17 -17 -17 -17 -18 -18 -18 -18 -17 -17
-15 -14 -14 -14 -14 -14 -14 -15 -15 -15 -15 -15 -16 -16 -16 -15 -16 -16 -16 -16 -16 -16 -15 -15 -16 -16 -16 -16 -17 -17 -17 -17 -17 -17 -17 -18 -18 -18 -18 -18 -18 -18 -17
-16 -17 -16 -15 -15 -15 -15 -15 -16 -16 -16 -17 -17 -17 -17 -17 -17 -16 -16 -16 -16 -16 -16 -16 -16 -16 -16 -17 -17 -17 -17 -17 -17 -17 -18 -19 -18 -18 -18 -18 -18 -18 -19
-17 -17 -17 -17 -17 -17 -16 -16 -16 -17 -17 -17 -17 -17 -17 -17 -17 -17 -17 -16 -17 -16 -17 -17 -17 -17 -17 -17 -17 -17 -18 -18 -18 -18 -19 -19 -19 -19 -18 -18 -19 -19 -19
-18 -18 -18 -19 -19 -18 -18 -17 -17 -17 -18 -18 -18 -17 -17 -18 -17 -17 -17 -17 -17 -17 -17 -17 -17 -16 -17 -18 -17 -18 -18 -19 -19 -20 -20 -19 -19 -19 -19 -19 -20 -20 -20
-20 -20 -20 -19 -19 -19 -19 -19 -19 -18 -18 -19 -19 -18 -18 -18 -18 -18 -18 -18 -18 -18 -18 -17 -17 -18 -18 -18 -18 -18 -19 -19 -20 -20 -19 -19 -19 -19 -20 -20 -20 -21 -21
-20 -21 -21 -21 -21 -21 -21 -21 -20 -19 -18 -18 -19 -19 -19 -19 -19 -19 -19 -19 -19 -18 -18 -18 -18 -18 -18 -18 -19 -19 -19 -20 -20 -19 -19 -19 -20 -20 -20 -21 -21 -21 -21
-21 -21 -21 -21 -21 -21 -21 -21 -21 -21 -20 -19 -19 -19 -19 -19 -20 -20 -20 -20 -19 -19 -19 -18 -19 -18 -19 -19 -20 -20 -21 -21 -20 -20 -19 -20 -20 -21 -21 -21 -21 -22 -22
-23 -22 -22 -22 -22 -22 -21 -20 -21 -21 -21 -20 -19 -20 -20 -20 -20 -20 -20 -19 -19 -19 -18 -19 -19 -20 -20 -20 -20 -21 -21 -21 -20 -20 -21 -21 -21 -22 -22 -22 -22 -23 -23
-23 -23 -23 -24 -23 -23 -23 -22 -21 -21 -20 -21 -20 -20 -20 -20 -20 -20 -20 -20 -20 -19 -20 -21 -21 -21 -21 -21 -21 -21 -21 -21 -21 -21 -21 -22 -22 -22 -22 -22 -23 -23 -25
-25 -25 -25 -24 -24 -24 -23 -24 -23 -23 -23 -22 -22 -21 -21 -21 -20 -20 -20 -21 -21 -21 -21 -21 -21 -21 -21 -21 -21 -21 -22 -22 -22 -22 -22 -22 -22 -22 -23 -23 -24 -25 -26
-25 -25 -25 -25 -25 -24 -24 -24 -23 -23 -23 -23 -22 -22 -21 -21 -21 -21 -21 -21 -22 -22 -21 -21 -22 -22 -22 -22 -22 -22 -23 -22 -22 -22 -23 -23 -23 -23 -24 -24 -25 -25 -26
-25 -26 -25 -26 -26 -26 -25 -25 -24 -24 -23 -23 -22 -22 -22 -22 -22 -22 -22 -22 -22 -22 -22 -22 -22 -22 -22 -22 -23 -23 -23 -23 -23 -23 -23 -23 -24 -25 -25 -25 -26 -26 -26
-26 -26 -26 -26 -26 -26 -26 -25 -25 -25 -24 -24 -24 -24 -23 -23 -23 -23 -23 -23 -23 -23 -22 -22 -22 -23 -23 -23 -23 -23 -23 -23 -23 -24 -23 -24 -25 -25 -25 -26 -26 -26 -27
-26 -26 -26 -26 -26 -26 -26 -26 -25 -25 -25 -24 -24 -24 -24 -23 -24 -23 -23 -23 -23 -23 -23 -23 -23 -23 -23 -23 -23 -24 -24 -24 -24 -24 -24 -25 -25 -26 -26 -26 -26 -27 -27
-27 -27 -27 -26 -26 -26 -26 -26 -26 -26 -26 -25 -25 -25 -24 -25 -24 -24 -24 -24 -24 -23 -23 -23 -23 -24 -24 -24 -24 -24 -24 -25 -25 -25 -25 -25 -26 -26 -27 -27 -27 -27 -27
-27 -27 -28 -28 -28 -27 -27 -26 -26 -26 -26 -26 -25 -25 -25 -25 -25 -25 -24 -24 -24 -23 -23 -24 -24 -24 -24 -24 -25 -25 -25 -25 -25 -25 -26 -26 -27 -27 -27 -27 -28 -28 -28
-28 -28 -28 -28 -27 -27 -27 -26 -26 -26 -26 -25 -25 -25 -26 -25 -25 -25 -25 -25 -24 -24 -24 -24 -24 -25 -25 -25 -25 -25 -25 -26 -26 -26 -27 -27 -27 -28 -28 -28 -28 -28 -28
-28 -28 -28 -28 -27 -27 -27 -26 -26 -26 -26 -26 -26 -26 -26 -26 -26 -25 -25 -25 -24 -24 -24 -25 -25 -25 -25 -25 -26 -26 -26 -26 -26 -27 -27 -28 -28 -28 -29 -29 -29 -29 -29
-28 -28 -28 -28 -27 -27 -27 -26 -27 -26 -26 -26 -26 -26 -26 -26 -26 -25 -26 -26 -25 -25 -25 -25 -25 -26 -26 -26 -26 -26 -26 -26 -27 -27 -28 -29 -29 -29 -29 -29 -29 -29 -29

GFSMW_500_temp_192.txt.gz
Temp
-11 -11 -11 -11 -11 -12 -10 -10 -11 -11 -11 -11 -11 -11 -12 -11 -12 -12 -13 -12 -12 -12 -12 -12 -12 -12 -12 -13 -13 -13 -13 -13 -13 -13 -13 -13 -13 -13 -13 -13 -13 -13 -14
-10 -11 -11 -11 -11 -11 -11 -11 -11 -11 -11 -11 -12 -11 -12 -11 -11 -12 -13 -12 -13 -13 -13 -13 -12 -12 -13 -13 -13 -13 -14 -14 -14 -14 -14 -14 -14 -14 -14 -14 -14 -14 -14
-11 -11 -11 -11 -11 -11 -11 -11 -12 -12 -12 -11 -11 -11 -12 -12 -12 -12 -13 -13 -13 -13 -13 -13 -13 -13 -13 -14 -14 -14 -14 -14 -15 -15 -15 -14 -14 -15 -15 -15 -15 -15 -16
-10 -11 -11 -11 -11 -11 -11 -11 -11 -12 -12 -12 -12 -12 -12 -12 -12 -13 -13 -13 -13 -13 -14 -14 -14 -14 -14 -14 -14 -14 -14 -15 -15 -15 -15 -15 -15 -15 -15 -15 -16 -16 -16
-10 -10 -11 -12 -11 -11 -11 -11 -11 -11 -11 -12 -12 -13 -13 -13 -13 -13 -13 -14 -14 -14 -14 -15 -15 -15 -15 -15 -15 -15 -15 -15 -15 -16 -16 -16 -15 -15 -15 -15 -16 -16 -16
-11 -11 -11 -12 -12 -12 -11 -12 -12 -11 -12 -12 -12 -12 -13 -13 -13 -14 -14 -15 -15 -15 -15 -15 -15 -15 -15 -15 -15 -15 -16 -16 -16 -16 -16 -16 -16 -16 -16 -16 -16 -16 -16
-13 -13 -13 -13 -14 -14 -12 -12 -13 -13 -13 -13 -14 -14 -13 -14 -14 -14 -15 -15 -15 -15 -15 -16 -16 -16 -16 -16 -16 -16 -16 -16 -16 -16 -16 -17 -17 -17 -17 -17 -16 -17 -17
-16 -15 -15 -16 -16 -16 -15 -14 -14 -14 -14 -14 -15 -15 -15 -15 -14 -14 -16 -16 -16 -16 -16 -16 -16 -16 -16 -16 -16 -16 -16 -16 -16 -16 -17 -17 -17 -17 -17 -17 -18 -18 -18
-17 -17 -17 -17 -17 -17 -17 -16 -16 -16 -16 -16 -16 -16 -16 -16 -16 -16 -16 -17 -16 -16 -16 -16 -16 -16 -16 -16 -16 -16 -16 -17 -16 -16 -17 -17 -17 -18 -18 -18 -19 -19 -18
-18 -18 -18 -18 -18 -18 -18 -19 -18 -17 -17 -17 -18 -17 -17 -17 -17 -16 -16 -17 -16 -16 -16 -16 -16 -16 -16 -16 -16 -17 -17 -17 -17 -17 -17 -18 -18 -18 -18 -19 -19 -19 -19
-18 -18 -18 -19 -18 -19 -19 -19 -19 -18 -18 -17 -17 -18 -17 -18 -18 -17 -17 -17 -17 -17 -16 -16 -17 -17 -17 -16 -16 -17 -17 -17 -17 -17 -18 -18 -18 -19 -20 -20 -19 -19 -19
-20 -19 -19 -19 -19 -20 -20 -20 -19 -19 -19 -18 -18 -19 -19 -18 -18 -18 -18 -18 -18 -18 -18 -17 -17 -17 -17 -17 -17 -17 -17 -18 -18 -18 -18 -18 -19 -20 -20 -20 -19 -19 -19
-20 -21 -20 -20 -20 -21 -20 -20 -20 -20 -20 -19 -20 -19 -19 -20 -19 -19 -19 -19 -19 -18 -18 -18 -18 -18 -18 -18 -18 -18 -18 -18 -18 -18 -19 -19 -20 -21 -20 -20 -19 -19 -20
-22 -21 -21 -21 -20 -21 -21 -21 -21 -21 -21 -21 -20 -20 -20 -20 -20 -20 -20 -19 -19 -19 -19 -19 -18 -19 -19 -18 -19 -19 -19 -19 -18 -19 -20 -20 -21 -21 -21 -20 -20 -20 -21
-23 -23 -22 -21 -23 -23 -22 -21 -21 -20 -21 -21 -21 -21 -21 -20 -20 -20 -20 -19 -20 -20 -20 -20 -19 -19 -19 -19 -19 -19 -19 -19 -20 -20 -20 -21 -21 -21 -21 -21 -21 -21 -21
-24 -25 -23 -22 -23 -23 -23 -23 -21 -21 -22 -22 -21 -21 -22 -21 -21 -21 -21 -21 -20 -21 -20 -20 -20 -19 -20 -19 -19 -20 -20 -21 -21 -20 -21 -21 -22 -22 -22 -22 -22 -22 -22
-25 -24 -23 -24 -23 -24 -23 -23 -23 -23 -22 -23 -22 -22 -22 -21 -21 -21 -21 -20 -21 -21 -20 -20 -20 -20 -20 -20 -21 -21 -21 -21 -21 -21 -21 -22 -22 -22 -22 -22 -22 -22 -22
-25 -25 -25 -26 -25 -25 -24 -24 -25 -24 -24 -23 -23 -23 -23 -22 -22 -22 -21 -21 -21 -21 -21 -21 -22 -22 -22 -22 -22 -22 -21 -21 -22 -22 -22 -22 -22 -23 -23 -23 -23 -23 -23
-25 -25 -25 -26 -26 -25 -24 -24 -25 -25 -25 -24 -24 -23 -23 -23 -23 -22 -22 -22 -22 -22 -22 -22 -22 -22 -22 -22 -22 -22 -22 -22 -22 -22 -23 -23 -23 -23 -23 -23 -23 -24 -24
-26 -26 -26 -26 -26 -26 -26 -25 -25 -26 -25 -25 -25 -24 -24 -24 -23 -23 -23 -23 -23 -23 -23 -23 -23 -22 -22 -22 -22 -22 -23 -23 -23 -23 -23 -23 -24 -23 -24 -24 -24 -24 -24
-26 -26 -26 -26 -26 -26 -26 -26 -26 -25 -26 -26 -25 -25 -24 -24 -23 -23 -24 -24 -24 -24 -23 -23 -23 -23 -23 -23 -23 -23 -23 -23 -23 -23 -24 -24 -24 -24 -24 -24 -25 -25 -25
-27 -27 -27 -26 -26 -26 -26 -26 -26 -26 -25 -26 -25 -25 -25 -25 -24 -25 -25 -24 -25 -24 -24 -24 -23 -23 -23 -23 -23 -23 -24 -24 -24 -24 -24 -25 -25 -25 -25 -25 -25 -26 -26
-27 -27 -27 -27 -27 -27 -27 -28 -28 -27 -26 -26 -26 -26 -26 -26 -26 -25 -25 -25 -24 -24 -24 -24 -24 -24 -23 -24 -24 -24 -24 -24 -24 -25 -25 -25 -25 -25 -25 -26 -26 -26 -27
-27 -27 -27 -27 -28 -27 -28 -27 -27 -27 -27 -26 -26 -26 -26 -26 -26 -25 -25 -25 -25 -25 -24 -24 -24 -24 -24 -24 -24 -24 -25 -25 -25 -25 -25 -25 -25 -25 -26 -26 -27 -28 -28
-27 -27 -27 -27 -28 -28 -28 -27 -27 -27 -27 -26 -26 -26 -26 -26 -25 -25 -25 -25 -25 -25 -25 -25 -24 -24 -25 -25 -25 -25 -25 -25 -25 -25 -26 -26 -26 -26 -27 -27 -27 -28 -28
-27 -27 -27 -27 -28 -28 -28 -27 -27 -27 -27 -26 -26 -26 -26 -26 -26 -26 -26 -26 -26 -26 -26 -25 -25 -25 -25 -25 -25 -26 -26 -26 -26 -26 -26 -26 -27 -27 -27 -28 -28 -28 -28

GFSMW_500_temp_195.txt.gz
Temp
-11 -10 -10 -10 -11 -10 -10 -10 -10 -11 -12 -11 -11 -11 -11 -11 -11 -12 -12 -12 -12 -11 -12 -12 -12 -12 -12 -12 -13 -13 -13 -13 -13 -13 -13 -13 -13 -13 -13 -13 -13 -13 -13
-11 -11 -11 -11 -11 -11 -10 -10 -11 -11 -11 -11 -11 -11 -11 -11 -11 -11 -11 -12 -12 -12 -12 -12 -12 -12 -13 -13 -13 -14 -14 -14 -14 -14 -14 -14 -14 -14 -14 -14 -14 -14 -14
-12 -12 -11 -12 -12 -11 -11 -11 -11 -11 -11 -10 -10 -11 -11 -11 -11 -12 -12 -12 -12 -12 -12 -12 -12 -13 -13 -14 -14 -14 -14 -15 -14 -15 -15 -15 -15 -14 -15 -15 -15 -14 -15
-12 -12 -12 -11 -11 -11 -11 -11 -11 -11 -11 -11 -11 -11 -11 -11 -11 -11 -12 -12 -12 -12 -12 -13 -13 -14 -14 -15 -15 -15 -15 -15 -15 -15 -15 -15 -15 -15 -15 -15 -15 -15 -15
-11 -11 -11 -12 -12 -12 -12 -12 -11 -12 -12 -12 -12 -12 -11 -11 -11 -11 -11 -12 -13 -12 -12 -13 -13 -14 -15 -15 -16 -16 -15 -16 -16 -15 -15 -15 -15 -16 -16 -16 -16 -16 -16
-12 -12 -13 -13 -14 -13 -13 -12 -12 -12 -12 -13 -13 -13 -13 -12 -12 -13 -13 -14 -14 -14 -14 -14 -13 -14 -15 -16 -16 -16 -16 -16 -16 -16 -16 -16 -16 -16 -15 -16 -16 -16 -16
-14 -14 -13 -13 -15 -15 -14 -13 -14 -13 -14 -14 -14 -14 -14 -14 -14 -14 -14 -14 -15 -15 -15 -15 -15 -15 -15 -16 -16 -16 -16 -16 -16 -16 -16 -16 -16 -16 -16 -16 -16 -16 -16
-14 -16 -16 -15 -16 -17 -16 -16 -15 -15 -15 -15 -15 -15 -15 -15 -15 -15 -16 -16 -16 -16 -16 -16 -16 -16 -16 -16 -16 -16 -16 -16 -16 -16 -16 -16 -16 -17 -16 -16 -17 -16 -16
-16 -15 -16 -18 -18 -18 -17 -16 -16 -16 -17 -16 -16 -16 -16 -16 -15 -16 -16 -16 -17 -16 -16 -16 -16 -16 -16 -16 -16 -16 -16 -16 -16 -16 -16 -16 -17 -17 -17 -17 -17 -17 -17
-18 -18 -18 -18 -18 -17 -17 -17 -17 -17 -17 -17 -17 -17 -17 -17 -17 -17 -17 -17 -17 -17 -17 -16 -16 -16 -16 -17 -16 -16 -16 -16 -16 -17 -17 -17 -17 -17 -17 -17 -17 -18 -18
-20 -20 -20 -19 -18 -18 -18 -18 -18 -18 -18 -18 -18 -18 -18 -18 -18 -18 -18 -18 -18 -18 -18 -16 -16 -16 -16 -16 -16 -16 -17 -17 -17 -17 -17 -18 -18 -18 -18 -18 -18 -18 -18
-21 -19 -21 -20 -19 -19 -19 -18 -19 -19 -19 -19 -19 -19 -19 -19 -19 -18 -19 -19 -19 -19 -18 -18 -18 -18 -17 -18 -17 -17 -18 -18 -18 -18 -18 -18 -18 -18 -18 -18 -18 -19 -19
-21 -20 -21 -21 -21 -20 -20 -20 -20 -20 -20 -19 -20 -20 -20 -20 -20 -19 -19 -19 -19 -18 -18 -18 -18 -18 -18 -18 -18 -18 -18 -18 -18 -19 -19 -19 -19 -19 -18 -19 -19 -19 -20
-22 -21 -22 -22 -21 -21 -21 -20 -20 -21 -21 -20 -20 -20 -20 -20 -20 -19 -19 -20 -20 -20 -19 -19 -19 -19 -19 -19 -19 -19 -19 -19 -19 -19 -19 -19 -19 -19 -19 -19 -20 -20 -21
-24 -23 -24 -22 -22 -23 -23 -22 -21 -22 -21 -21 -21 -21 -20 -20 -20 -20 -20 -20 -20 -20 -20 -20 -20 -20 -19 -20 -20 -20 -20 -20 -19 -19 -20 -20 -19 -20 -19 -20 -20 -20 -21
-25 -24 -24 -23 -23 -23 -23 -22 -23 -23 -22 -21 -22 -21 -21 -20 -21 -21 -21 -20 -21 -21 -21 -20 -20 -20 -20 -20 -20 -20 -21 -20 -20 -20 -20 -20 -21 -21 -21 -21 -21 -21 -21
-25 -25 -25 -24 -23 -23 -23 -23 -23 -24 -24 -23 -23 -22 -22 -22 -22 -21 -21 -21 -21 -21 -21 -21 -21 -21 -21 -21 -21 -21 -21 -21 -20 -21 -21 -22 -22 -21 -21 -21 -21 -22 -22
-25 -25 -25 -24 -24 -24 -23 -25 -25 -25 -24 -24 -23 -23 -22 -22 -22 -22 -22 -22 -22 -22 -21 -21 -22 -21 -21 -21 -21 -21 -22 -22 -22 -22 -22 -22 -22 -22 -22 -22 -22 -22 -23
-25 -25 -25 -25 -25 -25 -25 -25 -25 -25 -25 -25 -24 -24 -24 -24 -24 -23 -23 -23 -22 -23 -22 -22 -22 -22 -22 -22 -23 -23 -23 -23 -23 -22 -22 -22 -22 -22 -22 -22 -22 -23 -23
-25 -25 -25 -25 -26 -26 -26 -26 -26 -25 -26 -26 -25 -25 -25 -25 -25 -24 -24 -24 -24 -24 -23 -23 -23 -23 -23 -23 -23 -23 -23 -23 -23 -23 -23 -23 -23 -23 -23 -23 -23 -24 -24
-26 -25 -26 -27 -26 -26 -26 -26 -26 -26 -26 -25 -25 -26 -26 -25 -25 -25 -24 -24 -24 -24 -24 -24 -24 -24 -23 -23 -23 -23 -23 -23 -23 -23 -23 -23 -23 -24 -24 -24 -24 -24 -24
-26 -26 -27 -26 -26 -26 -26 -26 -26 -26 -26 -26 -26 -26 -26 -26 -25 -25 -25 -25 -25 -25 -25 -24 -24 -24 -24 -23 -23 -23 -23 -23 -23 -24 -24 -24 -24 -24 -25 -25 -25 -25 -25
-27 -27 -27 -26 -27 -27 -27 -27 -27 -27 -27 -27 -27 -27 -26 -26 -26 -26 -26 -26 -25 -25 -25 -25 -25 -24 -24 -24 -24 -23 -24 -24 -24 -24 -24 -25 -25 -25 -25 -25 -25 -25 -25
-26 -26 -27 -27 -27 -27 -27 -27 -27 -27 -27 -27 -27 -27 -27 -26 -26 -26 -26 -26 -26 -26 -25 -25 -25 -24 -24 -24 -24 -24 -25 -25 -25 -24 -25 -25 -25 -26 -26 -26 -26 -26 -26
-26 -27 -26 -26 -27 -27 -27 -27 -27 -27 -27 -27 -27 -27 -27 -27 -26 -26 -26 -26 -26 -25 -25 -26 -25 -25 -25 -25 -25 -25 -25 -25 -25 -25 -25 -26 -26 -26 -26 -26 -26 -26 -27
-27 -27 -27 -27 -27 -27 -27 -28 -27 -27 -27 -27 -27 -27 -27 -27 -26 -27 -26 -26 -26 -26 -26 -26 -26 -26 -26 -26 -26 -26 -25 -26 -26 -26 -26 -26 -26 -26 -27 -27 -27 -27 -27

GFSMW_500_temp_198.txt.gz
Temp
-11 -11 -11 -11 -11 -11 -11 -12 -11 -11 -11 -12 -12 -11 -11 -11 -11 -11 -12 -12 -12 -12 -12 -12 -12 -12 -12 -12 -12 -12 -12 -13 -13 -13 -13 -13 -13 -13 -13 -14 -14 -14 -13
-12 -12 -12 -11 -11 -11 -11 -11 -11 -11 -11 -11 -11 -11 -11 -11 -11 -11 -11 -11 -11 -12 -12 -12 -13 -12 -13 -13 -12 -12 -12 -13 -13 -13 -14 -14 -14 -14 -14 -14 -14 -14 -14
-13 -13 -12 -12 -11 -11 -11 -11 -11 -11 -11 -11 -11 -11 -11 -11 -11 -11 -11 -12 -12 -11 -11 -11 -11 -12 -12 -13 -13 -13 -13 -13 -13 -14 -14 -14 -14 -15 -15 -15 -15 -15 -15
-12 -12 -12 -12 -12 -12 -11 -11 -11 -11 -12 -12 -12 -12 -12 -12 -11 -11 -12 -12 -12 -12 -12 -13 -12 -13 -13 -13 -14 -14 -14 -14 -14 -14 -14 -14 -15 -15 -15 -16 -16 -16 -15
-12 -12 -12 -12 -12 -12 -12 -11 -11 -11 -11 -12 -12 -13 -13 -13 -13 -13 -13 -12 -13 -13 -13 -13 -14 -14 -15 -15 -15 -16 -16 -15 -15 -15 -15 -15 -15 -15 -15 -15 -16 -16 -16
-12 -12 -12 -12 -12 -11 -11 -11 -11 -11 -11 -12 -12 -12 -13 -13 -14 -14 -14 -13 -14 -14 -13 -14 -14 -15 -15 -16 -16 -16 -16 -16 -16 -16 -16 -16 -16 -15 -15 -16 -16 -16 -16
-13 -13 -13 -13 -13 -13 -12 -12 -12 -13 -13 -13 -13 -14 -14 -14 -14 -14 -14 -14 -14 -15 -15 -15 -15 -16 -16 -16 -16 -16 -16 -16 -16 -16 -16 -16 -16 -16 -16 -16 -16 -16 -16
-14 -14 -14 -14 -14 -14 -14 -14 -14 -14 -14 -15 -15 -15 -15 -15 -15 -15 -15 -15 -14 -16 -16 -16 -16 -16 -16 -16 -14 -16 -16 -16 -16 -16 -16 -16 -16 -16 -16 -16 -16 -17 -16
-14 -14 -14 -16 -17 -16 -16 -17 -16 -16 -16 -15 -16 -16 -13 -14 -15 -16 -16 -16 -16 -17 -17 -17 -17 -17 -16 -16 -16 -16 -16 -16 -16 -16 -16 -16 -16 -16 -16 -17 -17 -17 -17
-15 -15 -16 -16 -17 -17 -17 -18 -18 -18 -17 -16 -16 -16 -17 -17 -16 -16 -16 -17 -17 -17 -17 -17 -17 -17 -16 -16 -16 -16 -16 -16 -16 -16 -16 -16 -16 -16 -17 -17 -17 -18 -17
-18 -18 -18 -17 -20 -20 -19 -19 -19 -19 -19 -18 -18 -16 -17 -17 -17 -17 -18 -18 -18 -18 -18 -18 -17 -17 -17 -17 -17 -16 -16 -16 -16 -17 -17 -17 -17 -17 -18 -18 -18 -18 -18
-20 -21 -22 -22 -22 -21 -21 -21 -21 -20 -20 -19 -19 -19 -18 -18 -18 -18 -18 -17 -19 -19 -19 -19 -19 -18 -18 -18 -18 -18 -18 -17 -18 -18 -18 -18 -18 -18 -19 -19 -19 -19 -19
-20 -22 -22 -23 -23 -23 -22 -21 -21 -21 -20 -20 -20 -19 -19 -20 -20 -19 -18 -18 -19 -19 -19 -19 -19 -19 -19 -19 -18 -18 -18 -18 -18 -18 -18 -19 -19 -19 -19 -19 -19 -19 -19
-22 -23 -25 -25 -25 -24 -22 -22 -22 -22 -21 -20 -20 -21 -21 -20 -20 -20 -20 -19 -19 -20 -20 -20 -19 -20 -20 -19 -20 -19 -19 -19 -19 -19 -19 -19 -20 -20 -20 -20 -19 -20 -20
-24 -26 -26 -25 -25 -25 -24 -23 -23 -23 -22 -21 -21 -21 -21 -21 -21 -20 -20 -20 -20 -20 -20 -20 -20 -20 -20 -20 -20 -20 -20 -20 -20 -20 -20 -20 -19 -20 -20 -19 -20 -20 -20
-26 -26 -26 -25 -25 -25 -24 -23 -23 -23 -23 -22 -22 -21 -22 -21 -21 -21 -21 -21 -21 -21 -21 -21 -20 -21 -21 -21 -21 -20 -21 -20 -20 -20 -20 -20 -20 -20 -20 -20 -20 -21 -22
-25 -26 -26 -25 -25 -24 -24 -24 -23 -23 -23 -23 -23 -23 -22 -22 -22 -22 -22 -21 -21 -21 -22 -21 -21 -21 -22 -20 -20 -20 -21 -21 -21 -21 -21 -20 -21 -21 -21 -21 -22 -22 -22
-25 -26 -26 -25 -25 -24 -23 -24 -24 -24 -24 -24 -24 -24 -24 -23 -23 -23 -22 -22 -22 -22 -22 -22 -22 -21 -21 -21 -21 -20 -21 -21 -21 -20 -21 -21 -21 -21 -22 -22 -23 -22 -22
-26 -26 -25 -25 -25 -25 -24 -24 -24 -25 -25 -25 -25 -24 -24 -24 -24 -23 -23 -23 -23 -23 -22 -22 -21 -22 -22 -22 -21 -21 -21 -21 -22 -22 -22 -22 -23 -23 -23 -23 -23 -23 -23
-26 -25 -25 -25 -25 -24 -25 -25 -25 -25 -26 -25 -25 -25 -25 -25 -25 -25 -25 -24 -25 -24 -24 -24 -23 -23 -23 -23 -22 -22 -22 -23 -23 -23 -23 -23 -23 -23 -23 -23 -23 -23 -23
-26 -26 -26 -26 -25 -25 -25 -25 -26 -26 -26 -26 -26 -26 -25 -25 -25 -25 -25 -26 -26 -25 -24 -24 -24 -24 -24 -24 -24 -23 -23 -23 -23 -23 -23 -23 -23 -23 -23 -23 -23 -24 -24
-26 -26 -26 -26 -26 -26 -26 -26 -26 -26 -26 -26 -26 -26 -26 -26 -26 -26 -26 -26 -26 -25 -25 -25 -25 -25 -24 -24 -24 -24 -24 -24 -24 -23 -23 -23 -23 -24 -24 -24 -24 -24 -25
-26 -26 -27 -27 -27 -27 -27 -26 -27 -27 -27 -27 -27 -26 -27 -27 -27 -27 -26 -26 -26 -26 -26 -25 -25 -25 -25 -25 -25 -24 -24 -24 -24 -24 -24 -24 -24 -24 -24 -24 -25 -25 -25
-26 -27 -27 -27 -27 -27 -27 -27 -27 -27 -27 -27 -27 -27 -26 -27 -27 -27 -27 -27 -27 -26 -26 -25 -25 -25 -25 -25 -25 -24 -24 -24 -24 -24 -24 -25 -25 -25 -25 -25 -25 -25 -25
-27 -27 -27 -27 -27 -27 -27 -27 -27 -27 -27 -27 -27 -27 -27 -27 -28 -28 -28 -27 -27 -26 -26 -26 -26 -26 -25 -25 -25 -25 -25 -25 -25 -25 -25 -25 -25 -25 -25 -25 -25 -26 -26
-27 -27 -28 -27 -28 -27 -27 -27 -27 -27 -27 -27 -27 -27 -27 -27 -27 -27 -27 -27 -26 -26 -26 -26 -26 -26 -26 -26 -26 -26 -26 -26 -26 -26 -26 -26 -26 -26 -26 -26 -26 -27 -27

GFSMW_500_temp_204.txt.gz
Temp
-11 -11 -11 -11 -11 -11 -11 -11 -11 -12 -12 -12 -12 -12 -12 -12 -12 -12 -12 -13 -12 -13 -13 -12 -12 -13 -13 -12 -12 -12 -12 -13 -13 -13 -13 -12 -12 -13 -13 -13 -13 -13 -14
-11 -11 -11 -11 -11 -11 -11 -11 -12 -12 -12 -12 -12 -12 -12 -12 -12 -12 -12 -13 -12 -12 -13 -13 -13 -13 -13 -13 -13 -12 -12 -12 -12 -13 -13 -13 -13 -13 -14 -14 -14 -14 -14
-11 -11 -11 -11 -10 -11 -11 -11 -11 -11 -12 -12 -12 -12 -12 -12 -12 -13 -12 -13 -13 -13 -12 -12 -13 -13 -13 -13 -12 -13 -12 -13 -13 -13 -13 -13 -13 -14 -14 -14 -14 -14 -15
-12 -12 -12 -12 -11 -11 -11 -11 -12 -12 -12 -12 -12 -12 -13 -13 -13 -13 -13 -13 -13 -14 -13 -13 -12 -12 -13 -12 -13 -13 -13 -13 -13 -13 -14 -14 -14 -14 -14 -14 -15 -15 -15
-11 -12 -12 -12 -12 -12 -12 -12 -12 -12 -12 -13 -13 -12 -12 -12 -12 -13 -13 -14 -14 -14 -14 -14 -14 -14 -14 -14 -14 -14 -14 -14 -14 -13 -14 -14 -14 -14 -14 -15 -15 -15 -15
-12 -12 -12 -12 -12 -12 -12 -12 -12 -12 -12 -13 -13 -13 -13 -13 -12 -12 -13 -13 -14 -14 -14 -14 -14 -14 -14 -15 -15 -15 -14 -14 -14 -14 -15 -15 -14 -15 -15 -15 -15 -15 -15
-13 -13 -13 -12 -12 -13 -13 -13 -13 -13 -13 -13 -13 -13 -13 -13 -13 -13 -13 -13 -13 -13 -13 -14 -14 -15 -15 -15 -14 -14 -15 -14 -14 -15 -14 -14 -15 -15 -15 -15 -16 -16 -15
-13 -13 -13 -13 -13 -13 -13 -13 -13 -13 -13 -14 -14 -14 -13 -13 -13 -13 -13 -13 -13 -13 -13 -14 -14 -14 -15 -15 -13 -14 -14 -14 -15 -15 -15 -16 -16 -16 -16 -16 -16 -16 -15
-13 -13 -14 -14 -15 -14 -14 -14 -14 -14 -14 -14 -14 -13 -14 -13 -13 -13 -13 -13 -13 -13 -14 -14 -14 -14 -15 -15 -14 -16 -15 -15 -15 -16 -16 -15 -16 -16 -16 -16 -16 -16 -16
-13 -14 -14 -14 -14 -14 -15 -15 -15 -14 -14 -14 -14 -14 -14 -14 -14 -14 -14 -14 -14 -14 -14 -15 -15 -15 -15 -15 -16 -16 -15 -16 -16 -16 -16 -16 -16 -17 -17 -17 -17 -16 -16
-15 -15 -15 -15 -15 -15 -15 -15 -15 -15 -15 -15 -15 -15 -15 -15 -15 -15 -15 -14 -15 -15 -15 -15 -15 -16 -16 -15 -16 -16 -17 -16 -16 -16 -17 -17 -17 -17 -16 -16 -17 -17 -17
-15 -16 -16 -16 -16 -16 -16 -16 -16 -16 -16 -16 -16 -16 -16 -16 -16 -15 -16 -17 -18 -17 -17 -16 -17 -16 -16 -17 -17 -17 -17 -18 -17 -17 -17 -17 -18 -17 -17 -17 -17 -17 -17
-17 -17 -17 -16 -16 -16 -16 -17 -17 -17 -17 -16 -16 -17 -17 -17 -18 -18 -19 -19 -21 -21 -21 -19 -17 -17 -19 -18 -19 -18 -18 -18 -18 -18 -18 -18 -19 -18 -18 -18 -18 -18 -18
-17 -17 -17 -17 -17 -17 -17 -17 -18 -18 -18 -19 -21 -21 -21 -21 -21 -22 -22 -23 -23 -22 -21 -20 -19 -18 -20 -19 -18 -18 -19 -19 -19 -19 -19 -19 -19 -19 -19 -19 -19 -19 -19
-18 -18 -18 -18 -18 -19 -19 -19 -20 -21 -22 -23 -24 -24 -24 -23 -23 -24 -23 -23 -23 -23 -21 -21 -20 -20 -19 -19 -19 -19 -20 -20 -20 -21 -20 -20 -20 -20 -19 -19 -20 -20 -19
-19 -19 -19 -20 -20 -21 -22 -23 -24 -24 -24 -25 -25 -25 -24 -24 -24 -24 -24 -23 -23 -22 -21 -21 -20 -20 -20 -20 -20 -20 -20 -22 -21 -21 -20 -20 -20 -20 -20 -20 -20 -20 -20
-20 -20 -21 -22 -23 -24 -25 -25 -25 -25 -26 -26 -25 -25 -25 -24 -24 -24 -24 -24 -24 -23 -22 -22 -21 -22 -21 -21 -21 -21 -22 -22 -21 -21 -21 -21 -21 -20 -20 -20 -20 -20 -21
-22 -23 -24 -25 -25 -26 -26 -26 -26 -26 -26 -26 -25 -25 -25 -25 -25 -24 -24 -24 -24 -24 -24 -23 -23 -23 -22 -22 -22 -22 -22 -22 -21 -21 -21 -22 -21 -21 -21 -21 -21 -21 -21
-25 -26 -26 -26 -26 -26 -26 -26 -26 -25 -25 -25 -24 -25 -25 -25 -25 -25 -25 -25 -25 -24 -24 -24 -23 -23 -23 -23 -23 -23 -22 -22 -22 -22 -22 -22 -22 -21 -21 -22 -22 -22 -22
-27 -27 -27 -27 -26 -26 -25 -26 -25 -25 -25 -25 -25 -26 -26 -25 -26 -25 -25 -25 -24 -24 -24 -23 -23 -23 -23 -23 -23 -23 -23 -22 -22 -22 -22 -22 -22 -22 -22 -22 -22 -22 -23
-27 -27 -27 -27 -27 -26 -26 -26 -25 -25 -26 -26 -26 -26 -26 -26 -25 -25 -25 -25 -24 -24 -24 -24 -24 -24 -24 -24 -24 -24 -23 -23 -23 -23 -23 -23 -23 -22 -22 -23 -23 -23 -23
-28 -28 -27 -27 -27 -26 -26 -26 -25 -26 -27 -26 -26 -26 -26 -26 -26 -26 -25 -25 -26 -26 -26 -26 -25 -25 -25 -26 -25 -25 -25 -25 -25 -24 -23 -24 -24 -23 -23 -24 -24 -24 -24
-28 -27 -27 -27 -27 -27 -27 -26 -27 -27 -27 -26 -26 -26 -26 -26 -26 -26 -26 -26 -26 -26 -26 -27 -27 -27 -27 -27 -26 -26 -26 -25 -25 -24 -24 -25 -25 -24 -24 -25 -24 -24 -24
-28 -28 -28 -26 -26 -26 -26 -27 -27 -27 -27 -27 -27 -27 -27 -27 -27 -26 -26 -26 -26 -26 -26 -27 -28 -27 -27 -27 -26 -26 -26 -26 -26 -25 -25 -25 -25 -25 -25 -24 -24 -24 -25
-29 -28 -28 -28 -27 -27 -26 -26 -27 -27 -27 -27 -27 -27 -27 -27 -27 -26 -26 -26 -27 -27 -27 -27 -28 -28 -28 -27 -27 -26 -26 -26 -26 -25 -25 -25 -25 -25 -25 -25 -25 -25 -25
-29 -29 -29 -28 -28 -27 -27 -27 -27 -27 -27 -27 -27 -27 -27 -27 -27 -26 -26 -27 -27 -27 -27 -27 -28 -28 -28 -27 -27 -27 -26 -26 -26 -26 -25 -26 -26 -25 -26 -26 -26 -26 -26

GFSMW_500_temp_207.txt.gz
Temp
-10 -10 -11 -11 -11 -11 -11 -11 -11 -11 -11 -12 -12 -11 -11 -11 -11 -12 -12 -12 -12 -12 -12 -12 -12 -12 -13 -13 -13 -12 -13 -13 -13 -13 -13 -13 -13 -13 -13 -13 -13 -13 -13
-11 -11 -11 -11 -11 -11 -12 -12 -12 -12 -12 -12 -12 -12 -12 -12 -12 -12 -12 -12 -12 -12 -12 -12 -13 -13 -13 -12 -13 -13 -13 -13 -13 -13 -13 -13 -13 -13 -13 -13 -14 -14 -14
-11 -11 -11 -11 -11 -11 -11 -11 -12 -12 -12 -12 -12 -12 -12 -12 -12 -12 -12 -12 -12 -12 -12 -12 -13 -13 -13 -13 -13 -13 -13 -13 -13 -13 -13 -13 -13 -14 -14 -14 -14 -14 -14
-11 -11 -11 -11 -11 -11 -11 -11 -11 -12 -12 -12 -12 -12 -12 -12 -12 -13 -13 -13 -13 -13 -13 -13 -13 -13 -13 -13 -13 -13 -13 -13 -13 -13 -13 -14 -14 -14 -14 -15 -15 -14 -14
-11 -11 -12 -12 -12 -11 -12 -12 -11 -11 -11 -12 -13 -13 -13 -12 -13 -13 -13 -13 -14 -14 -14 -14 -14 -14 -14 -14 -13 -13 -13 -13 -13 -13 -14 -14 -14 -14 -14 -15 -15 -15 -15
-11 -11 -11 -11 -11 -11 -12 -12 -12 -12 -12 -12 -13 -13 -13 -13 -13 -13 -13 -13 -14 -14 -14 -14 -14 -15 -15 -14 -14 -14 -14 -14 -14 -14 -14 -15 -15 -14 -15 -15 -15 -15 -15
-12 -12 -12 -11 -11 -12 -12 -12 -13 -13 -13 -13 -13 -13 -13 -13 -14 -14 -13 -13 -13 -14 -14 -14 -13 -14 -15 -15 -14 -14 -14 -14 -14 -14 -14 -15 -14 -15 -15 -15 -16 -15 -16
-11 -11 -12 -12 -12 -13 -13 -13 -13 -13 -13 -13 -13 -13 -14 -14 -14 -14 -14 -14 -14 -14 -14 -15 -15 -14 -15 -15 -15 -15 -15 -15 -14 -14 -14 -14 -14 -15 -15 -15 -16 -16 -16
-12 -12 -12 -13 -13 -14 -14 -14 -14 -14 -14 -14 -14 -14 -14 -14 -14 -15 -15 -15 -15 -15 -15 -16 -16 -16 -15 -15 -15 -15 -15 -15 -13 -14 -15 -15 -14 -15 -15 -15 -15 -16 -16
-12 -12 -13 -14 -14 -14 -14 -14 -14 -14 -14 -14 -15 -15 -15 -15 -15 -15 -15 -15 -15 -16 -15 -15 -15 -15 -15 -15 -15 -15 -15 -15 -14 -15 -15 -16 -15 -15 -15 -15 -15 -16 -15
-13 -14 -14 -14 -14 -14 -14 -14 -15 -15 -15 -15 -16 -16 -16 -16 -16 -16 -16 -16 -16 -16 -15 -15 -15 -15 -15 -15 -15 -15 -15 -15 -15 -15 -15 -15 -16 -15 -16 -16 -16 -16 -17
-14 -14 -14 -14 -15 -15 -15 -15 -16 -16 -16 -16 -16 -16 -16 -16 -16 -16 -16 -16 -15 -15 -16 -16 -15 -16 -15 -15 -16 -17 -17 -16 -17 -17 -17 -15 -16 -16 -16 -16 -16 -17 -17
-14 -15 -15 -15 -16 -16 -16 -16 -16 -16 -16 -16 -16 -16 -16 -16 -17 -18 -18 -18 -18 -17 -16 -16 -17 -17 -18 -19 -18 -19 -18 -18 -17 -17 -17 -16 -17 -17 -18 -18 -18 -18 -18
-16 -16 -16 -16 -16 -17 -17 -17 -17 -17 -17 -17 -17 -17 -18 -19 -20 -21 -22 -22 -21 -21 -20 -20 -20 -20 -20 -20 -21 -21 -20 -19 -18 -18 -18 -19 -18 -18 -19 -19 -19 -19 -19
-17 -17 -17 -18 -17 -17 -17 -17 -17 -17 -17 -18 -19 -20 -22 -24 -24 -25 -25 -24 -24 -24 -24 -24 -23 -22 -22 -22 -22 -21 -21 -21 -20 -19 -19 -19 -19 -19 -19 -19 -19 -20 -20
-18 -18 -18 -18 -18 -18 -18 -18 -18 -19 -20 -21 -24 -25 -25 -25 -25 -25 -24 -24 -24 -24 -24 -23 -23 -23 -23 -23 -22 -21 -20 -20 -19 -20 -20 -20 -20 -20 -21 -20 -20 -20 -20
-18 -18 -18 -18 -18 -19 -19 -20 -20 -22 -24 -25 -25 -25 -26 -25 -25 -25 -25 -25 -24 -24 -24 -24 -24 -23 -22 -22 -21 -22 -22 -21 -21 -21 -21 -22 -22 -22 -22 -21 -21 -20 -21
-19 -19 -19 -19 -20 -21 -22 -23 -24 -25 -25 -25 -25 -25 -25 -25 -25 -25 -25 -25 -25 -24 -24 -24 -24 -24 -24 -23 -23 -23 -23 -23 -22 -22 -22 -22 -22 -22 -22 -22 -21 -21 -21
-20 -20 -21 -22 -24 -24 -25 -25 -26 -25 -25 -25 -25 -25 -25 -25 -25 -26 -26 -25 -25 -25 -25 -25 -25 -24 -24 -25 -24 -23 -23 -23 -23 -23 -22 -23 -23 -23 -23 -22 -22 -22 -21
-21 -23 -25 -26 -27 -27 -27 -26 -26 -25 -25 -25 -25 -25 -25 -25 -26 -26 -25 -25 -25 -25 -25 -25 -24 -24 -25 -24 -24 -24 -24 -24 -24 -24 -24 -24 -24 -23 -22 -22 -22 -22 -22
-25 -26 -27 -28 -28 -27 -27 -26 -26 -26 -26 -26 -25 -25 -27 -26 -26 -26 -25 -25 -25 -25 -25 -25 -25 -25 -25 -25 -25 -25 -24 -24 -24 -24 -23 -23 -23 -22 -22 -22 -22 -22 -22
-28 -28 -28 -28 -28 -28 -27 -27 -26 -26 -26 -26 -27 -27 -26 -26 -26 -26 -26 -26 -26 -26 -26 -26 -26 -26 -26 -25 -25 -25 -26 -26 -25 -25 -24 -24 -23 -23 -24 -23 -23 -23 -23
-28 -29 -29 -28 -28 -28 -27 -27 -27 -27 -26 -27 -27 -27 -26 -26 -26 -26 -26 -26 -26 -26 -26 -25 -26 -26 -26 -26 -26 -27 -26 -26 -26 -26 -25 -25 -25 -25 -24 -24 -24 -24 -24
-29 -29 -29 -29 -28 -28 -27 -27 -26 -27 -27 -27 -27 -27 -27 -26 -26 -26 -26 -26 -26 -26 -26 -26 -26 -27 -27 -28 -28 -27 -27 -27 -27 -26 -26 -26 -26 -25 -25 -25 -25 -25 -25
-30 -29 -29 -29 -28 -28 -28 -28 -27 -27 -27 -27 -27 -27 -27 -27 -27 -26 -26 -26 -26 -26 -26 -27 -27 -27 -27 -28 -28 -28 -28 -27 -27 -27 -27 -26 -26 -26 -26 -25 -25 -26 -26
-30 -30 -30 -29 -29 -29 -29 -29 -28 -28 -28 -27 -27 -27 -27 -27 -27 -27 -27 -27 -27 -26 -26 -27 -27 -27 -28 -28 -28 -28 -28 -27 -27 -27 -27 -26 -26 -26 -26 -26 -26 -26 -26

GFSMW_500_temp_210.txt.gz
Temp
-10 -10 -10 -10 -10 -11 -11 -11 -11 -11 -11 -11 -11 -11 -11 -12 -12 -12 -12 -12 -11 -11 -12 -12 -12 -12 -12 -12 -12 -12 -12 -12 -12 -12 -12 -13 -13 -13 -13 -13 -12 -12 -13
-11 -11 -11 -11 -11 -11 -11 -11 -12 -12 -12 -12 -12 -12 -12 -12 -13 -13 -13 -12 -12 -12 -12 -12 -12 -12 -12 -12 -12 -12 -12 -12 -12 -12 -12 -12 -12 -12 -13 -13 -13 -13 -13
-11 -11 -11 -11 -11 -11 -11 -11 -12 -12 -12 -12 -12 -12 -13 -13 -13 -13 -13 -13 -13 -13 -13 -13 -13 -13 -13 -12 -12 -13 -12 -12 -12 -12 -13 -12 -12 -12 -13 -13 -13 -14 -14
-11 -11 -11 -11 -11 -11 -11 -11 -11 -11 -11 -11 -11 -12 -12 -13 -13 -13 -13 -13 -13 -13 -13 -13 -13 -13 -14 -14 -13 -13 -13 -13 -13 -13 -13 -13 -13 -13 -12 -13 -13 -13 -13
-11 -11 -11 -11 -11 -11 -11 -11 -11 -11 -11 -11 -11 -11 -11 -11 -12 -13 -13 -13 -14 -14 -14 -14 -14 -14 -14 -14 -14 -15 -14 -14 -13 -13 -13 -13 -13 -13 -13 -14 -14 -14 -14
-12 -12 -12 -12 -11 -12 -12 -11 -11 -11 -11 -11 -12 -12 -12 -12 -12 -13 -13 -14 -13 -13 -13 -14 -14 -14 -14 -14 -15 -15 -14 -14 -14 -14 -14 -13 -13 -13 -13 -14 -13 -13 -14
-12 -11 -11 -11 -11 -11 -11 -11 -11 -11 -11 -11 -12 -12 -12 -13 -13 -13 -13 -14 -14 -15 -14 -14 -14 -14 -14 -15 -15 -15 -15 -15 -15 -15 -15 -14 -14 -14 -14 -14 -14 -14 -14
-12 -12 -12 -12 -11 -11 -12 -11 -11 -12 -12 -12 -12 -12 -13 -13 -13 -13 -14 -14 -15 -15 -16 -16 -15 -14 -15 -15 -15 -15 -15 -15 -16 -15 -15 -15 -15 -15 -14 -14 -14 -14 -14
-12 -12 -12 -12 -12 -12 -12 -12 -12 -12 -12 -12 -13 -13 -14 -14 -14 -14 -15 -15 -15 -15 -15 -16 -16 -16 -16 -16 -17 -17 -17 -16 -16 -16 -16 -15 -15 -15 -15 -15 -15 -15 -14
-13 -13 -13 -12 -13 -13 -13 -13 -13 -13 -13 -13 -13 -13 -13 -13 -13 -14 -14 -15 -15 -15 -16 -16 -16 -16 -16 -16 -16 -16 -16 -16 -16 -16 -16 -15 -15 -15 -15 -15 -15 -14 -15
-13 -13 -13 -13 -13 -13 -13 -13 -13 -13 -13 -13 -13 -15 -15 -15 -14 -14 -15 -16 -16 -16 -16 -16 -16 -16 -16 -16 -16 -16 -16 -16 -16 -16 -16 -15 -15 -15 -17 -15 -15 -16 -15
-13 -13 -13 -13 -13 -14 -14 -14 -13 -14 -14 -15 -15 -14 -14 -16 -16 -16 -17 -17 -16 -16 -16 -16 -16 -16 -16 -16 -15 -16 -16 -16 -16 -16 -17 -16 -16 -16 -17 -16 -16 -16 -15
-14 -14 -14 -14 -14 -14 -14 -14 -14 -14 -14 -14 -15 -16 -16 -17 -17 -17 -17 -17 -16 -16 -16 -16 -16 -16 -17 -17 -17 -18 -18 -18 -18 -17 -18 -18 -18 -17 -17 -16 -16 -17 -16
-14 -14 -14 -14 -14 -14 -14 -14 -15 -15 -15 -16 -17 -17 -17 -17 -17 -17 -17 -17 -17 -18 -19 -21 -22 -23 -23 -22 -21 -21 -21 -20 -19 -18 -19 -19 -19 -18 -17 -17 -17 -17 -17
-14 -14 -15 -14 -15 -15 -16 -16 -16 -16 -17 -17 -17 -17 -17 -17 -17 -18 -19 -20 -23 -25 -25 -24 -24 -24 -24 -24 -24 -22 -20 -19 -19 -19 -19 -19 -19 -18 -19 -18 -19 -19 -18
-15 -15 -16 -16 -16 -16 -16 -17 -18 -18 -18 -18 -18 -18 -18 -19 -20 -23 -25 -25 -25 -24 -25 -24 -24 -24 -23 -23 -24 -23 -22 -21 -20 -21 -21 -19 -21 -19 -19 -19 -19 -19 -19
-16 -16 -17 -17 -17 -17 -18 -18 -18 -18 -18 -18 -19 -19 -21 -23 -25 -25 -25 -25 -25 -25 -24 -24 -24 -24 -23 -23 -22 -23 -22 -22 -22 -22 -21 -21 -21 -21 -20 -20 -20 -20 -20
-17 -17 -17 -18 -18 -19 -19 -18 -18 -19 -19 -20 -22 -23 -25 -25 -25 -25 -25 -25 -25 -25 -25 -24 -24 -24 -24 -23 -23 -23 -23 -22 -22 -22 -21 -22 -22 -22 -21 -21 -21 -21 -21
-18 -18 -18 -19 -19 -19 -19 -20 -20 -21 -23 -24 -25 -25 -25 -25 -25 -25 -25 -25 -25 -25 -25 -25 -25 -25 -24 -24 -24 -24 -23 -23 -23 -23 -23 -23 -23 -23 -22 -22 -22 -22 -22
-18 -19 -19 -19 -20 -20 -21 -22 -24 -25 -25 -26 -25 -25 -25 -25 -25 -25 -26 -26 -25 -25 -25 -25 -25 -25 -25 -24 -24 -24 -24 -24 -24 -23 -23 -23 -23 -23 -23 -23 -23 -22 -22
-20 -19 -20 -20 -22 -23 -26 -27 -27 -27 -27 -26 -26 -26 -26 -25 -26 -26 -26 -26 -25 -25 -25 -25 -25 -25 -25 -25 -25 -25 -25 -25 -25 -25 -25 -25 -24 -24 -24 -24 -24 -24 -24
-20 -21 -21 -23 -25 -27 -28 -28 -28 -27 -27 -27 -26 -26 -26 -27 -27 -27 -26 -26 -26 -26 -26 -26 -26 -26 -26 -26 -26 -26 -26 -26 -25 -25 -25 -25 -25 -24 -24 -24 -24 -24 -24
-21 -22 -23 -26 -28 -29 -29 -28 -28 -28 -27 -27 -26 -26 -26 -28 -27 -26 -26 -26 -26 -26 -26 -26 -26 -26 -26 -26 -26 -26 -26 -27 -27 -27 -26 -26 -26 -25 -25 -25 -24 -24 -24
-23 -25 -26 -28 -29 -29 -29 -29 -28 -28 -27 -27 -27 -26 -28 -27 -26 -26 -26 -26 -26 -26 -26 -26 -26 -26 -27 -27 -26 -27 -27 -28 -28 -28 -27 -27 -26 -26 -26 -25 -25 -25 -25
-27 -27 -28 -29 -30 -29 -29 -29 -29 -28 -28 -28 -27 -27 -27 -27 -27 -26 -26 -26 -26 -26 -26 -26 -26 -27 -27 -27 -27 -27 -28 -28 -28 -27 -27 -27 -27 -26 -26 -26 -26 -26 -25
-28 -28 -28 -29 -29 -30 -29 -29 -29 -29 -29 -29 -28 -28 -28 -27 -27 -27 -27 -27 -26 -27 -27 -27 -27 -27 -27 -27 -27 -28 -28 -28 -28 -27 -27 -27 -27 -26 -26 -26 -26 -26 -26

GFSMW_500_temp_216.txt.gz
Temp
-10 -10 -10 -10 -11 -11 -11 -11 -11 -11 -11 -11 -11 -11 -11 -11 -10 -11 -11 -11 -11 -11 -11 -11 -11 -12 -12 -12 -12 -12 -12 -13 -12 -12 -12 -12 -12 -12 -13 -12 -12 -12 -12
-10 -11 -11 -11 -11 -11 -11 -11 -11 -11 -11 -11 -11 -11 -11 -11 -11 -11 -11 -11 -11 -11 -11 -12 -12 -12 -12 -12 -12 -13 -13 -13 -13 -12 -13 -12 -12 -12 -13 -12 -12 -13 -12
-10 -11 -11 -11 -11 -11 -11 -11 -11 -11 -11 -11 -11 -11 -11 -11 -11 -11 -11 -11 -11 -12 -12 -12 -12 -12 -12 -12 -12 -12 -13 -13 -13 -13 -13 -13 -13 -13 -13 -13 -13 -12 -13
-9 -11 -11 -11 -11 -11 -11 -11 -11 -12 -12 -11 -11 -11 -11 -11 -11 -11 -12 -12 -12 -11 -12 -12 -12 -12 -12 -12 -13 -13 -13 -13 -13 -14 -13 -14 -14 -13 -13 -14 -13 -13 -12
-10 -10 -11 -11 -11 -11 -11 -12 -12 -12 -12 -12 -11 -11 -11 -11 -11 -11 -12 -12 -12 -12 -12 -12 -12 -13 -13 -13 -13 -13 -13 -13 -13 -13 -13 -13 -15 -14 -13 -13 -14 -14 -13
-11 -11 -11 -11 -11 -11 -11 -12 -12 -12 -12 -12 -12 -12 -12 -12 -12 -12 -12 -12 -12 -12 -12 -12 -12 -13 -13 -13 -13 -14 -14 -14 -14 -14 -14 -14 -14 -15 -15 -13 -14 -15 -15
-11 -11 -11 -11 -12 -12 -12 -12 -12 -12 -12 -12 -11 -11 -11 -12 -12 -12 -12 -11 -12 -12 -12 -12 -13 -13 -13 -14 -14 -14 -14 -14 -14 -14 -14 -15 -14 -15 -16 -16 -15 -15 -15
-11 -11 -11 -11 -12 -12 -12 -12 -12 -12 -11 -11 -11 -12 -11 -12 -11 -11 -11 -12 -12 -12 -12 -12 -13 -14 -14 -15 -15 -15 -15 -16 -16 -15 -15 -15 -15 -15 -15 -16 -17 -16 -15
-12 -11 -11 -11 -11 -11 -12 -12 -12 -12 -12 -12 -12 -12 -12 -12 -12 -12 -12 -12 -12 -13 -13 -13 -13 -13 -14 -15 -16 -16 -17 -17 -17 -17 -17 -17 -16 -17 -16 -16 -16 -16 -16
-12 -12 -11 -11 -12 -12 -12 -12 -11 -12 -12 -12 -12 -12 -12 -12 -12 -12 -12 -13 -13 -13 -13 -14 -14 -15 -15 -16 -16 -16 -17 -17 -17 -17 -17 -17 -17 -17 -17 -17 -17 -17 -16
-12 -12 -12 -12 -12 -12 -12 -12 -12 -12 -12 -12 -12 -12 -12 -13 -13 -13 -13 -12 -13 -13 -14 -14 -14 -15 -16 -16 -16 -17 -17 -17 -17 -17 -17 -17 -17 -17 -17 -17 -17 -17 -17
-12 -12 -13 -12 -12 -12 -12 -12 -13 -13 -13 -13 -13 -13 -13 -12 -12 -12 -12 -13 -13 -13 -14 -14 -15 -16 -16 -16 -16 -17 -17 -17 -17 -17 -17 -17 -17 -17 -17 -17 -17 -18 -18
-13 -13 -13 -12 -12 -13 -13 -13 -13 -13 -13 -13 -13 -13 -12 -12 -13 -13 -13 -13 -13 -14 -14 -14 -15 -16 -16 -17 -17 -17 -17 -17 -17 -17 -17 -18 -18 -19 -19 -19 -18 -19 -19
-13 -13 -13 -12 -13 -13 -13 -13 -13 -13 -13 -13 -13 -13 -13 -13 -13 -13 -14 -14 -14 -14 -15 -16 -16 -17 -17 -17 -18 -19 -19 -19 -20 -21 -22 -23 -23 -23 -23 -23 -22 -22 -19
-13 -13 -13 -13 -13 -13 -13 -14 -13 -13 -13 -14 -13 -13 -13 -13 -14 -14 -14 -15 -15 -16 -17 -17 -18 -18 -19 -20 -20 -22 -24 -23 -23 -23 -23 -22 -23 -23 -23 -24 -24 -23 -22
-14 -14 -14 -14 -13 -14 -14 -14 -14 -14 -14 -14 -14 -14 -14 -14 -15 -15 -15 -16 -16 -17 -18 -18 -20 -21 -21 -24 -24 -24 -24 -23 -23 -23 -23 -22 -23 -23 -24 -24 -24 -22 -23
-15 -14 -14 -15 -14 -14 -14 -14 -14 -14 -14 -14 -14 -14 -15 -15 -15 -16 -16 -17 -18 -18 -20 -21 -22 -24 -25 -24 -24 -25 -24 -24 -24 -24 -23 -23 -23 -23 -23 -23 -23 -23 -22
-14 -14 -15 -15 -14 -14 -15 -14 -14 -14 -14 -15 -15 -15 -15 -16 -16 -17 -18 -18 -20 -22 -23 -24 -25 -25 -25 -24 -25 -24 -24 -24 -24 -24 -24 -24 -24 -23 -23 -23 -23 -23 -23
-14 -15 -15 -15 -15 -15 -15 -15 -15 -15 -15 -15 -16 -16 -17 -17 -17 -18 -19 -21 -23 -24 -25 -25 -25 -25 -25 -25 -25 -24 -24 -24 -24 -24 -24 -24 -24 -24 -24 -24 -23 -23 -22
-15 -16 -16 -16 -15 -15 -15 -15 -15 -16 -16 -17 -17 -17 -17 -17 -19 -20 -23 -25 -25 -26 -25 -25 -26 -26 -26 -25 -25 -25 -25 -24 -24 -24 -24 -24 -24 -24 -24 -24 -24 -24 -23
-17 -16 -16 -16 -16 -16 -15 -16 -16 -16 -17 -17 -17 -18 -19 -20 -22 -25 -26 -26 -26 -26 -26 -27 -26 -26 -26 -26 -25 -25 -25 -25 -25 -24 -24 -25 -24 -24 -24 -24 -24 -24 -24
-17 -17 -17 -17 -17 -17 -16 -16 -17 -17 -18 -18 -19 -20 -22 -24 -26 -27 -27 -27 -26 -26 -27 -27 -27 -27 -26 -26 -26 -26 -25 -25 -25 -26 -26 -26 -26 -25 -25 -24 -24 -24 -24
-18 -17 -17 -17 -17 -17 -17 -17 -18 -18 -19 -20 -21 -24 -25 -27 -28 -28 -28 -27 -26 -27 -28 -27 -27 -27 -26 -26 -26 -26 -26 -26 -26 -26 -26 -26 -26 -26 -26 -26 -25 -25 -25
-18 -18 -18 -18 -18 -18 -19 -19 -19 -19 -22 -24 -25 -26 -26 -28 -28 -28 -28 -27 -27 -28 -28 -28 -27 -27 -26 -26 -26 -26 -26 -26 -27 -27 -26 -27 -27 -27 -27 -27 -26 -26 -26
-18 -18 -18 -19 -19 -19 -19 -20 -22 -23 -25 -26 -27 -27 -27 -28 -29 -29 -28 -28 -27 -28 -28 -27 -27 -27 -26 -26 -26 -26 -26 -27 -27 -27 -27 -27 -28 -28 -28 -28 -27 -27 -27
-19 -19 -18 -19 -19 -20 -21 -22 -25 -26 -27 -27 -28 -28 -28 -28 -29 -29 -28 -28 -28 -29 -29 -28 -27 -27 -27 -27 -27 -26 -27 -27 -27 -27 -27 -27 -28 -28 -28 -27 -27 -27 -27

GFSMW_500_temp_219.txt.gz
Temp
-10 -10 -11 -11 -11 -11 -11 -10 -10 -10 -11 -11 -11 -11 -11 -11 -11 -11 -11 -11 -11 -11 -11 -11 -11 -11 -11 -12 -12 -12 -12 -12 -12 -12 -12 -12 -12 -12 -12 -12 -12 -12 -12
-9 -10 -11 -11 -11 -11 -11 -10 -10 -10 -11 -11 -11 -11 -11 -11 -11 -11 -11 -11 -11 -11 -11 -11 -11 -11 -12 -11 -11 -11 -12 -12 -13 -12 -12 -11 -11 -13 -13 -12 -12 -12 -12
-9 -10 -11 -11 -11 -11 -11 -11 -11 -11 -11 -11 -11 -11 -11 -11 -11 -11 -11 -11 -11 -11 -11 -11 -12 -11 -11 -11 -12 -11 -11 -12 -12 -13 -12 -12 -12 -12 -12 -12 -12 -12 -12
-9 -9 -11 -11 -11 -11 -11 -11 -11 -11 -11 -11 -12 -12 -12 -11 -11 -11 -11 -11 -11 -11 -12 -12 -12 -12 -12 -12 -12 -12 -12 -12 -12 -12 -13 -13 -12 -12 -12 -13 -13 -12 -12
-10 -9 -10 -11 -11 -11 -11 -11 -11 -11 -12 -12 -12 -12 -12 -12 -11 -11 -11 -11 -12 -12 -12 -12 -12 -12 -13 -13 -12 -12 -13 -13 -13 -13 -13 -13 -13 -13 -12 -12 -13 -13 -12
-11 -11 -11 -11 -11 -11 -11 -11 -11 -11 -11 -12 -12 -12 -12 -12 -12 -11 -11 -11 -11 -12 -12 -12 -12 -12 -12 -12 -13 -13 -12 -12 -13 -13 -13 -13 -14 -13 -14 -13 -13 -13 -13
-11 -11 -11 -11 -12 -12 -11 -11 -12 -12 -11 -12 -12 -12 -12 -12 -12 -12 -12 -12 -12 -12 -12 -12 -12 -12 -12 -12 -12 -12 -12 -12 -12 -13 -13 -13 -14 -14 -14 -15 -14 -13 -13
-12 -12 -13 -13 -13 -12 -12 -12 -12 -12 -12 -12 -12 -12 -12 -12 -12 -12 -12 -12 -12 -12 -12 -12 -12 -12 -12 -12 -12 -12 -12 -13 -13 -13 -14 -14 -15 -15 -15 -16 -15 -15 -14
-12 -13 -13 -13 -13 -12 -12 -12 -12 -13 -13 -13 -13 -13 -13 -12 -12 -12 -12 -12 -12 -12 -12 -12 -12 -12 -12 -12 -13 -13 -13 -14 -15 -16 -16 -16 -16 -16 -16 -16 -16 -16 -16
-13 -13 -13 -13 -12 -12 -12 -12 -12 -12 -13 -13 -13 -13 -12 -13 -13 -13 -13 -13 -13 -13 -12 -12 -13 -13 -13 -13 -13 -13 -14 -15 -16 -16 -16 -17 -17 -17 -17 -17 -17 -17 -18
-13 -13 -13 -13 -12 -12 -13 -13 -13 -13 -13 -13 -13 -13 -13 -13 -14 -13 -13 -13 -13 -13 -13 -13 -13 -13 -14 -14 -14 -14 -15 -16 -17 -17 -17 -18 -18 -18 -18 -18 -18 -18 -18
-13 -13 -13 -13 -13 -13 -13 -13 -13 -13 -13 -13 -13 -13 -13 -14 -14 -14 -14 -14 -14 -13 -13 -13 -13 -14 -14 -14 -15 -15 -16 -16 -17 -18 -18 -17 -17 -17 -17 -17 -18 -18 -19
-14 -14 -14 -13 -14 -13 -13 -13 -13 -13 -14 -14 -14 -14 -14 -14 -13 -13 -13 -13 -13 -13 -14 -14 -14 -14 -15 -15 -15 -16 -17 -17 -18 -18 -18 -19 -19 -19 -19 -20 -20 -20 -21
-14 -14 -14 -14 -14 -14 -14 -14 -13 -14 -14 -14 -14 -14 -14 -13 -13 -13 -13 -14 -14 -14 -14 -14 -14 -15 -15 -15 -15 -16 -17 -18 -19 -20 -21 -22 -23 -24 -23 -23 -23 -23 -23
-14 -14 -13 -13 -14 -14 -14 -14 -14 -14 -14 -14 -14 -14 -14 -14 -14 -14 -14 -14 -14 -14 -14 -15 -15 -15 -15 -16 -17 -18 -20 -22 -24 -24 -24 -24 -23 -23 -23 -23 -23 -22 -22
-14 -14 -14 -14 -14 -14 -14 -14 -14 -14 -14 -14 -14 -14 -14 -15 -14 -14 -14 -15 -15 -15 -15 -15 -15 -16 -16 -18 -20 -22 -24 -25 -24 -24 -24 -24 -24 -24 -23 -22 -22 -23 -23
-14 -13 -13 -14 -14 -14 -14 -14 -14 -15 -14 -15 -15 -15 -15 -15 -15 -15 -15 -15 -15 -15 -15 -16 -17 -17 -19 -22 -24 -25 -25 -25 -25 -24 -24 -24 -24 -23 -24 -23 -23 -23 -24
-14 -14 -14 -15 -14 -14 -14 -14 -14 -15 -15 -15 -15 -15 -15 -15 -15 -15 -15 -16 -16 -16 -16 -18 -19 -21 -23 -25 -25 -25 -25 -25 -25 -24 -24 -24 -24 -24 -24 -24 -24 -24 -23
-14 -14 -14 -14 -14 -14 -14 -14 -14 -15 -16 -16 -16 -15 -15 -15 -15 -15 -16 -16 -16 -17 -18 -20 -24 -25 -25 -25 -25 -26 -26 -25 -25 -24 -24 -24 -24 -24 -24 -24 -24 -24 -24
-14 -14 -15 -15 -15 -15 -15 -15 -16 -16 -16 -16 -16 -16 -16 -15 -16 -16 -16 -17 -18 -18 -21 -24 -26 -25 -25 -26 -26 -26 -26 -25 -25 -24 -24 -24 -24 -24 -24 -24 -25 -24 -24
-14 -15 -15 -15 -15 -16 -16 -16 -16 -16 -17 -17 -16 -16 -16 -16 -17 -17 -18 -18 -20 -22 -24 -26 -26 -26 -26 -26 -26 -26 -26 -26 -26 -25 -25 -25 -25 -25 -25 -25 -25 -25 -25
-15 -15 -16 -15 -15 -16 -16 -16 -16 -16 -17 -17 -16 -16 -17 -17 -18 -18 -20 -22 -24 -26 -27 -27 -26 -27 -27 -27 -27 -26 -26 -26 -26 -25 -25 -25 -26 -26 -26 -26 -26 -25 -25
-15 -16 -16 -16 -16 -16 -17 -17 -17 -17 -17 -17 -17 -17 -18 -18 -19 -22 -24 -25 -26 -28 -27 -27 -28 -28 -27 -27 -27 -27 -26 -26 -26 -26 -26 -26 -27 -27 -27 -28 -27 -26 -26
-16 -17 -17 -17 -17 -18 -18 -18 -17 -17 -17 -18 -19 -18 -19 -21 -24 -25 -26 -27 -28 -28 -28 -27 -28 -28 -28 -27 -27 -27 -26 -26 -26 -26 -26 -27 -27 -27 -27 -28 -28 -28 -27
-17 -17 -17 -17 -18 -19 -19 -18 -18 -18 -18 -18 -20 -21 -23 -25 -26 -27 -27 -28 -28 -29 -28 -28 -29 -28 -28 -27 -27 -27 -27 -27 -27 -27 -27 -27 -27 -27 -27 -28 -28 -28 -28
-17 -17 -18 -19 -19 -19 -19 -19 -19 -19 -19 -20 -22 -25 -26 -27 -27 -27 -28 -29 -29 -29 -29 -29 -29 -28 -28 -28 -27 -27 -27 -27 -27 -27 -27 -27 -27 -27 -27 -27 -28 -27 -27

GFSMW_500_temp_225.txt.gz
Temp
-10 -10 -11 -11 -12 -11 -12 -12 -12 -12 -12 -12 -12 -12 -12 -12 -12 -12 -12 -12 -11 -12 -12 -12 -12 -12 -12 -12 -12 -12 -12 -12 -12 -12 -12 -12 -12 -11 -12 -13 -12 -12 -13
-10 -10 -11 -11 -12 -12 -12 -12 -12 -12 -12 -12 -12 -11 -12 -12 -12 -12 -12 -12 -11 -12 -12 -12 -12 -12 -12 -12 -12 -12 -12 -12 -12 -12 -12 -12 -12 -12 -12 -11 -12 -13 -13
-11 -11 -11 -12 -12 -12 -12 -12 -12 -12 -12 -12 -12 -12 -11 -12 -12 -12 -12 -12 -12 -12 -12 -12 -12 -12 -12 -12 -12 -12 -12 -12 -12 -12 -12 -12 -11 -11 -12 -12 -12 -12 -13
-11 -10 -10 -11 -12 -12 -12 -12 -12 -12 -11 -12 -12 -12 -12 -12 -12 -12 -12 -12 -12 -12 -12 -12 -12 -12 -12 -12 -12 -12 -12 -12 -12 -12 -12 -12 -11 -11 -10 -11 -11 -11 -11
-11 -11 -11 -11 -11 -12 -13 -12 -12 -12 -12 -12 -12 -12 -12 -12 -12 -12 -12 -12 -12 -12 -12 -12 -12 -12 -12 -12 -12 -12 -12 -12 -12 -12 -12 -12 -12 -11 -11 -10 -11 -11 -11
-11 -11 -11 -11 -11 -11 -13 -13 -13 -12 -12 -12 -12 -12 -12 -12 -12 -12 -12 -12 -13 -13 -13 -13 -13 -12 -12 -12 -12 -12 -12 -12 -12 -12 -12 -12 -12 -12 -12 -12 -12 -12 -12
-11 -12 -11 -11 -11 -11 -12 -13 -13 -13 -12 -12 -13 -13 -13 -13 -12 -13 -13 -13 -13 -13 -13 -13 -13 -13 -13 -13 -13 -13 -13 -13 -13 -13 -13 -13 -13 -13 -13 -13 -12 -13 -13
-11 -12 -12 -11 -11 -12 -12 -13 -13 -13 -13 -13 -13 -13 -13 -13 -13 -13 -13 -13 -13 -13 -13 -13 -13 -13 -13 -13 -13 -13 -13 -13 -13 -13 -13 -14 -13 -13 -13 -13 -13 -13 -13
-11 -11 -12 -12 -12 -12 -12 -12 -13 -13 -13 -13 -13 -12 -13 -13 -13 -13 -12 -12 -12 -12 -12 -12 -12 -12 -12 -13 -13 -13 -14 -14 -14 -14 -14 -14 -14 -14 -14 -14 -14 -14 -14
-12 -12 -12 -12 -13 -13 -13 -13 -13 -14 -14 -14 -14 -13 -13 -13 -13 -12 -12 -12 -12 -12 -13 -13 -13 -13 -13 -13 -13 -13 -14 -14 -14 -14 -14 -14 -14 -14 -14 -15 -15 -15 -15
-12 -13 -12 -12 -13 -13 -14 -14 -14 -13 -13 -13 -13 -13 -13 -13 -13 -13 -13 -13 -13 -13 -13 -13 -12 -13 -13 -14 -14 -14 -13 -14 -14 -14 -14 -14 -14 -15 -15 -15 -15 -15 -16
-11 -11 -12 -12 -13 -13 -14 -14 -14 -13 -13 -13 -13 -13 -13 -13 -14 -14 -14 -13 -13 -13 -13 -13 -13 -13 -14 -14 -14 -14 -14 -14 -14 -14 -14 -15 -15 -15 -15 -15 -15 -16 -17
-11 -11 -12 -12 -12 -13 -13 -14 -13 -13 -13 -13 -13 -13 -14 -14 -14 -14 -14 -13 -13 -13 -13 -13 -13 -14 -14 -14 -14 -15 -15 -15 -14 -15 -15 -15 -15 -15 -15 -16 -17 -19 -20
-12 -12 -12 -12 -12 -12 -13 -13 -13 -13 -13 -14 -14 -14 -14 -14 -14 -14 -14 -14 -14 -14 -14 -14 -14 -14 -14 -15 -15 -15 -15 -15 -15 -15 -15 -15 -16 -16 -16 -18 -21 -23 -24
-12 -12 -12 -12 -12 -12 -12 -13 -14 -14 -14 -14 -14 -14 -14 -14 -14 -14 -14 -15 -15 -15 -15 -15 -15 -15 -15 -15 -15 -15 -15 -15 -15 -15 -16 -16 -16 -17 -21 -23 -24 -24 -24
-12 -12 -12 -12 -12 -13 -13 -14 -14 -14 -14 -14 -13 -14 -14 -15 -14 -15 -15 -15 -15 -15 -15 -15 -15 -15 -15 -16 -16 -16 -16 -16 -15 -16 -16 -17 -20 -23 -25 -25 -25 -24 -24
-12 -12 -13 -13 -13 -13 -14 -14 -14 -14 -14 -14 -14 -15 -15 -15 -15 -15 -16 -15 -15 -15 -15 -15 -15 -15 -15 -16 -16 -16 -16 -16 -16 -16 -19 -23 -25 -25 -25 -25 -25 -24 -24
-12 -13 -14 -14 -14 -14 -14 -14 -15 -15 -15 -15 -15 -15 -15 -15 -15 -15 -15 -15 -15 -15 -15 -16 -16 -16 -16 -16 -16 -16 -16 -17 -17 -20 -24 -25 -25 -26 -25 -25 -25 -25 -24
-14 -14 -14 -15 -15 -14 -15 -15 -15 -15 -15 -15 -15 -15 -15 -15 -15 -15 -15 -15 -15 -15 -16 -16 -16 -17 -17 -17 -16 -16 -17 -18 -22 -25 -25 -26 -26 -26 -26 -25 -25 -25 -25
-13 -14 -14 -15 -15 -15 -16 -16 -15 -15 -15 -15 -15 -15 -15 -15 -15 -15 -16 -16 -16 -16 -16 -17 -17 -17 -17 -16 -17 -17 -18 -21 -25 -26 -26 -26 -26 -26 -26 -26 -25 -25 -25
-14 -15 -15 -15 -15 -16 -15 -15 -15 -15 -15 -15 -15 -15 -15 -15 -15 -16 -16 -16 -16 -17 -17 -17 -17 -17 -17 -17 -17 -19 -22 -25 -26 -26 -27 -27 -27 -26 -26 -25 -25 -26 -26
-15 -15 -16 -15 -15 -16 -16 -15 -15 -15 -15 -15 -16 -16 -15 -16 -16 -16 -17 -17 -18 -18 -18 -18 -17 -18 -17 -18 -20 -23 -25 -27 -27 -27 -27 -27 -27 -26 -26 -26 -26 -26 -27
-16 -16 -16 -17 -16 -15 -15 -15 -15 -15 -16 -16 -16 -16 -16 -16 -16 -17 -18 -18 -18 -18 -18 -18 -19 -18 -19 -21 -23 -25 -27 -27 -28 -27 -27 -27 -27 -27 -26 -26 -26 -27 -27
-16 -16 -17 -16 -16 -16 -16 -16 -16 -16 -16 -16 -16 -16 -16 -16 -17 -17 -17 -18 -19 -19 -19 -19 -20 -21 -23 -24 -25 -27 -28 -28 -28 -28 -28 -27 -27 -27 -27 -26 -27 -27 -27
-16 -16 -17 -17 -17 -17 -16 -16 -16 -16 -16 -16 -16 -16 -17 -17 -17 -18 -19 -19 -19 -20 -20 -21 -23 -25 -26 -26 -26 -27 -28 -29 -29 -28 -28 -28 -27 -27 -27 -27 -27 -27 -28
-17 -16 -16 -17 -18 -17 -17 -17 -17 -17 -17 -17 -17 -17 -18 -18 -19 -19 -20 -20 -20 -21 -22 -24 -26 -26 -26 -26 -27 -28 -29 -29 -29 -29 -28 -28 -27 -27 -27 -27 -27 -28 -28

GFSMW_500_temp_228.txt.gz
Temp
-11 -11 -10 -10 -11 -12 -12 -12 -12 -12 -12 -12 -12 -12 -12 -12 -12 -12 -12 -12 -12 -11 -11 -12 -12 -12 -12 -12 -12 -12 -12 -12 -12 -12 -12 -12 -12 -13 -12 -12 -12 -13 -13
-10 -11 -11 -10 -11 -11 -11 -11 -11 -11 -11 -12 -12 -12 -12 -12 -12 -12 -12 -12 -12 -12 -12 -12 -12 -12 -12 -13 -13 -13 -13 -12 -13 -12 -12 -12 -12 -12 -12 -12 -12 -12 -12
-11 -11 -11 -11 -11 -10 -11 -11 -11 -11 -11 -12 -12 -12 -12 -12 -12 -12 -12 -12 -12 -12 -12 -12 -13 -13 -13 -13 -13 -13 -13 -13 -12 -12 -12 -12 -12 -12 -12 -12 -12 -12 -12
-11 -10 -11 -11 -11 -11 -11 -11 -11 -12 -11 -12 -12 -12 -12 -12 -12 -12 -12 -12 -12 -13 -13 -13 -13 -13 -13 -13 -13 -13 -13 -13 -13 -13 -12 -12 -12 -12 -11 -12 -12 -12 -12
-10 -10 -11 -11 -12 -12 -12 -13 -12 -12 -12 -12 -12 -12 -12 -12 -12 -12 -12 -12 -12 -12 -12 -13 -13 -13 -13 -13 -13 -13 -13 -13 -13 -12 -12 -12 -12 -12 -11 -11 -11 -12 -12
-10 -10 -10 -11 -11 -11 -12 -12 -12 -12 -12 -12 -12 -12 -12 -12 -12 -12 -12 -12 -12 -12 -13 -13 -13 -13 -13 -13 -13 -13 -13 -13 -13 -12 -12 -12 -12 -13 -13 -12 -11 -11 -12
-10 -10 -11 -11 -11 -12 -12 -12 -12 -14 -14 -13 -13 -13 -13 -12 -12 -12 -12 -12 -12 -13 -13 -13 -13 -13 -13 -13 -13 -13 -13 -13 -13 -13 -13 -13 -13 -12 -13 -13 -12 -12 -12
-10 -11 -11 -11 -11 -11 -11 -12 -13 -13 -14 -14 -14 -13 -13 -12 -12 -12 -13 -12 -13 -13 -13 -13 -13 -13 -13 -13 -13 -14 -13 -13 -13 -13 -13 -13 -13 -13 -13 -13 -13 -13 -13
-11 -10 -10 -11 -11 -10 -11 -12 -12 -12 -13 -13 -13 -14 -13 -13 -13 -13 -13 -13 -13 -13 -13 -13 -14 -14 -14 -14 -13 -13 -13 -13 -13 -13 -13 -14 -14 -14 -14 -14 -14 -13 -12
-10 -10 -10 -10 -11 -11 -11 -11 -12 -12 -13 -13 -14 -14 -13 -13 -14 -14 -13 -14 -14 -13 -14 -14 -14 -14 -13 -13 -13 -13 -13 -13 -13 -14 -14 -14 -14 -14 -14 -14 -14 -14 -14
-11 -11 -11 -10 -11 -11 -11 -12 -12 -12 -13 -14 -14 -14 -13 -13 -14 -14 -14 -14 -14 -14 -14 -14 -14 -13 -13 -13 -13 -13 -13 -14 -14 -14 -14 -14 -14 -15 -15 -15 -15 -15 -15
-11 -11 -11 -10 -11 -11 -11 -12 -12 -13 -13 -13 -13 -13 -13 -14 -14 -14 -13 -13 -14 -14 -14 -14 -14 -14 -13 -14 -14 -14 -14 -14 -14 -14 -14 -14 -14 -15 -15 -15 -15 -15 -15
-11 -11 -11 -11 -11 -11 -11 -12 -12 -13 -13 -13 -14 -13 -13 -13 -13 -13 -14 -14 -14 -14 -14 -14 -14 -14 -14 -14 -14 -14 -14 -14 -14 -15 -15 -15 -15 -15 -15 -16 -16 -16 -16
-11 -10 -11 -11 -11 -12 -12 -12 -12 -13 -13 -13 -13 -13 -13 -13 -14 -14 -14 -14 -14 -14 -14 -14 -14 -15 -15 -14 -14 -14 -15 -15 -15 -15 -15 -15 -16 -16 -16 -16 -16 -16 -17
-11 -11 -12 -12 -13 -13 -12 -12 -12 -13 -13 -13 -13 -13 -13 -13 -13 -13 -13 -14 -14 -14 -15 -15 -15 -14 -14 -14 -15 -15 -15 -15 -15 -15 -16 -16 -17 -16 -16 -16 -17 -19 -22
-12 -12 -12 -13 -13 -13 -13 -13 -13 -13 -13 -13 -14 -14 -14 -14 -14 -14 -14 -14 -15 -15 -15 -15 -15 -15 -15 -15 -15 -15 -15 -15 -16 -17 -17 -17 -16 -17 -17 -18 -22 -23 -25
-12 -12 -12 -13 -13 -14 -13 -14 -14 -14 -14 -14 -14 -14 -15 -14 -14 -14 -14 -15 -15 -15 -15 -15 -15 -15 -15 -15 -15 -15 -16 -17 -17 -17 -17 -17 -17 -17 -20 -23 -24 -25 -25
-12 -14 -14 -13 -14 -14 -14 -14 -14 -14 -14 -14 -14 -15 -15 -15 -15 -15 -15 -15 -15 -15 -16 -15 -15 -15 -15 -15 -16 -16 -17 -17 -17 -17 -17 -17 -18 -21 -24 -25 -26 -26 -26
-13 -14 -14 -14 -14 -15 -14 -15 -15 -15 -14 -14 -15 -15 -15 -15 -15 -16 -16 -16 -16 -15 -15 -15 -15 -15 -15 -15 -16 -17 -17 -18 -17 -17 -17 -18 -21 -24 -26 -26 -26 -26 -26
-13 -13 -13 -13 -14 -15 -15 -14 -15 -15 -15 -14 -15 -15 -15 -15 -16 -16 -16 -16 -15 -16 -15 -15 -15 -15 -16 -17 -17 -18 -18 -18 -18 -18 -18 -21 -24 -26 -26 -27 -27 -26 -26
-15 -14 -14 -14 -14 -14 -15 -15 -15 -15 -16 -16 -15 -15 -16 -16 -16 -16 -16 -16 -16 -15 -15 -16 -16 -16 -17 -18 -18 -18 -18 -18 -19 -19 -22 -24 -26 -27 -27 -27 -27 -26 -26
-15 -14 -14 -14 -14 -14 -15 -15 -16 -16 -16 -16 -16 -16 -16 -15 -15 -15 -16 -16 -16 -16 -16 -16 -17 -18 -18 -19 -18 -18 -19 -19 -21 -23 -24 -26 -27 -27 -27 -27 -27 -27 -26
-16 -15 -14 -14 -14 -15 -15 -16 -16 -16 -16 -16 -16 -16 -16 -16 -16 -16 -16 -16 -16 -16 -17 -18 -19 -19 -18 -19 -19 -20 -21 -23 -24 -25 -26 -28 -28 -28 -28 -27 -27 -27 -27
-16 -14 -14 -15 -15 -15 -15 -16 -17 -17 -16 -16 -16 -16 -17 -16 -17 -16 -17 -17 -17 -17 -18 -19 -19 -19 -20 -20 -21 -24 -25 -25 -25 -26 -27 -28 -28 -28 -28 -28 -27 -27 -27
-16 -15 -15 -15 -15 -15 -16 -17 -17 -17 -17 -17 -17 -17 -18 -17 -17 -17 -17 -17 -17 -19 -19 -19 -19 -20 -20 -23 -24 -26 -26 -26 -26 -26 -28 -28 -29 -28 -28 -28 -27 -27 -27
-16 -15 -15 -15 -16 -16 -16 -17 -17 -17 -17 -18 -18 -18 -17 -17 -18 -17 -17 -18 -19 -19 -19 -20 -20 -21 -22 -25 -26 -26 -26 -27 -27 -27 -28 -29 -29 -29 -28 -28 -28 -27 -27

GFSMW_500_temp_234.txt.gz
Temp
-12 -11 -11 -11 -11 -11 -11 -11 -12 -13 -12 -11 -11 -11 -11 -12 -12 -12 -12 -13 -12 -12 -12 -11 -11 -11 -11 -11 -11 -12 -12 -12 -12 -12 -12 -12 -13 -13 -13 -13 -13 -12 -12
-12 -12 -11 -11 -11 -11 -11 -11 -12 -12 -12 -12 -11 -11 -11 -12 -12 -12 -11 -12 -12 -12 -12 -11 -11 -11 -11 -12 -12 -12 -12 -12 -12 -12 -13 -13 -13 -13 -13 -13 -13 -13 -13
-10 -11 -11 -11 -11 -11 -11 -11 -11 -12 -13 -12 -11 -11 -11 -11 -12 -12 -12 -12 -12 -12 -12 -12 -11 -11 -12 -12 -12 -12 -12 -12 -12 -12 -12 -13 -13 -13 -13 -13 -13 -13 -13
-11 -10 -10 -11 -11 -11 -11 -11 -11 -11 -12 -12 -12 -12 -12 -12 -12 -12 -12 -12 -12 -12 -12 -12 -11 -12 -12 -12 -12 -12 -12 -12 -12 -12 -12 -12 -13 -13 -13 -13 -13 -13 -13
-11 -11 -10 -10 -11 -11 -10 -11 -11 -11 -11 -12 -12 -12 -12 -12 -12 -12 -12 -12 -12 -12 -12 -12 -12 -12 -12 -12 -12 -12 -12 -12 -12 -12 -13 -13 -13 -13 -12 -13 -13 -13 -12
-11 -10 -10 -11 -10 -11 -11 -11 -11 -11 -11 -11 -11 -12 -12 -12 -12 -12 -12 -12 -12 -12 -12 -12 -12 -12 -12 -12 -12 -12 -12 -13 -12 -12 -13 -13 -13 -12 -12 -12 -12 -12 -13
-11 -10 -10 -10 -10 -10 -12 -11 -11 -11 -11 -11 -12 -12 -12 -12 -12 -12 -12 -12 -13 -12 -13 -12 -12 -12 -12 -12 -12 -12 -12 -13 -13 -12 -13 -13 -13 -13 -12 -12 -12 -12 -12
-10 -10 -10 -11 -11 -11 -11 -12 -11 -11 -11 -12 -12 -12 -12 -12 -12 -12 -12 -13 -13 -13 -13 -13 -13 -12 -12 -13 -13 -13 -13 -13 -13 -13 -13 -13 -13 -13 -13 -12 -12 -13 -13
-11 -11 -11 -11 -11 -11 -12 -12 -12 -12 -12 -12 -12 -12 -13 -12 -12 -12 -13 -13 -13 -13 -13 -13 -13 -13 -13 -13 -13 -13 -13 -13 -13 -13 -13 -13 -13 -13 -13 -13 -13 -13 -13
-11 -11 -11 -11 -11 -12 -12 -12 -12 -12 -12 -13 -12 -13 -13 -13 -13 -13 -12 -13 -12 -13 -13 -13 -13 -14 -14 -14 -14 -13 -13 -13 -14 -14 -13 -13 -13 -13 -13 -14 -14 -13 -13
-10 -11 -11 -11 -11 -11 -12 -12 -12 -12 -13 -13 -13 -13 -14 -14 -13 -13 -13 -13 -13 -13 -14 -14 -14 -14 -14 -14 -13 -13 -13 -13 -13 -14 -14 -14 -14 -14 -14 -14 -14 -14 -14
-10 -10 -11 -10 -11 -11 -12 -12 -13 -13 -13 -13 -14 -14 -14 -13 -13 -13 -13 -13 -13 -13 -14 -14 -13 -14 -13 -13 -13 -13 -13 -14 -14 -14 -14 -14 -14 -14 -14 -14 -14 -14 -14
-11 -11 -11 -10 -11 -12 -13 -12 -12 -13 -13 -14 -13 -14 -14 -14 -13 -13 -13 -14 -13 -13 -14 -14 -14 -14 -13 -13 -14 -14 -14 -14 -14 -14 -15 -15 -14 -14 -14 -14 -14 -15 -15
-12 -12 -12 -11 -11 -11 -11 -12 -12 -12 -13 -13 -13 -13 -13 -13 -13 -13 -13 -13 -13 -14 -14 -14 -14 -13 -13 -13 -14 -14 -14 -14 -14 -15 -15 -15 -15 -14 -14 -15 -15 -15 -15
-13 -13 -12 -12 -12 -12 -11 -11 -11 -11 -12 -12 -12 -13 -12 -13 -12 -13 -13 -13 -13 -13 -14 -14 -14 -14 -13 -14 -14 -14 -14 -15 -15 -15 -15 -15 -15 -15 -15 -15 -15 -15 -15
-13 -13 -13 -12 -12 -12 -12 -12 -12 -12 -12 -12 -12 -12 -12 -12 -13 -13 -13 -13 -13 -13 -13 -14 -14 -14 -14 -14 -14 -14 -15 -15 -15 -15 -15 -15 -15 -15 -15 -15 -15 -16 -16
-13 -13 -12 -13 -12 -12 -11 -12 -12 -12 -12 -12 -13 -13 -13 -12 -12 -13 -13 -13 -13 -13 -14 -14 -14 -14 -14 -14 -14 -15 -15 -15 -15 -15 -15 -15 -15 -16 -15 -16 -16 -17 -18
-13 -13 -13 -12 -11 -11 -12 -12 -12 -12 -12 -12 -12 -12 -12 -12 -12 -12 -13 -13 -14 -14 -14 -14 -14 -14 -15 -15 -15 -16 -15 -15 -15 -15 -15 -16 -16 -15 -16 -17 -17 -17 -18
-14 -13 -13 -13 -12 -12 -11 -11 -12 -12 -12 -13 -13 -13 -12 -12 -13 -13 -13 -14 -14 -14 -14 -14 -14 -15 -15 -16 -16 -16 -16 -16 -15 -15 -16 -16 -16 -16 -17 -17 -17 -18 -19
-13 -14 -14 -13 -12 -12 -12 -11 -11 -11 -11 -12 -13 -13 -13 -13 -13 -14 -14 -14 -14 -14 -14 -14 -15 -16 -16 -16 -16 -16 -16 -16 -16 -16 -16 -16 -17 -17 -17 -17 -19 -20 -22
-14 -14 -15 -14 -13 -12 -12 -12 -11 -11 -12 -12 -12 -13 -13 -13 -13 -14 -14 -14 -14 -15 -15 -15 -16 -16 -16 -16 -16 -16 -16 -16 -16 -16 -17 -17 -17 -17 -18 -19 -20 -22 -25
-14 -14 -15 -14 -13 -13 -12 -12 -11 -13 -13 -13 -13 -13 -13 -13 -14 -14 -14 -15 -15 -15 -15 -16 -16 -17 -16 -16 -16 -16 -16 -16 -16 -17 -17 -18 -18 -19 -20 -20 -23 -25 -26
-15 -15 -16 -15 -14 -13 -13 -13 -13 -13 -13 -14 -14 -13 -14 -13 -14 -14 -15 -15 -15 -15 -15 -16 -17 -17 -17 -17 -16 -16 -16 -17 -17 -17 -18 -18 -19 -20 -21 -23 -25 -26 -27
-16 -16 -16 -15 -14 -14 -14 -13 -14 -13 -14 -13 -13 -14 -14 -13 -14 -14 -15 -15 -16 -16 -16 -17 -17 -17 -18 -17 -17 -16 -17 -17 -17 -18 -18 -19 -20 -21 -23 -25 -26 -26 -27
-17 -16 -16 -15 -14 -15 -15 -14 -12 -13 -14 -13 -13 -14 -14 -14 -15 -15 -15 -16 -16 -16 -17 -18 -17 -18 -17 -17 -17 -17 -17 -18 -18 -18 -19 -20 -21 -22 -25 -27 -27 -27 -27
-17 -17 -16 -16 -15 -15 -15 -15 -13 -14 -14 -13 -14 -14 -14 -15 -15 -15 -15 -16 -16 -17 -17 -17 -18 -18 -18 -17 -17 -17 -18 -18 -19 -19 -20 -21 -22 -24 -26 -27 -27 -27 -27

GFSMW_500_temp_237.txt.gz
Temp
-11 -11 -11 -11 -11 -11 -11 -11 -12 -12 -12 -12 -11 -11 -11 -11 -11 -11 -11 -11 -11 -11 -12 -12 -11 -11 -11 -11 -11 -11 -11 -12 -12 -12 -12 -12 -12 -12 -12 -12 -12 -12 -12
-11 -11 -11 -10 -11 -11 -11 -11 -12 -12 -12 -12 -12 -11 -11 -11 -11 -11 -11 -11 -11 -12 -12 -12 -12 -11 -11 -11 -11 -12 -12 -12 -12 -12 -12 -12 -12 -12 -12 -13 -12 -13 -13
-11 -11 -11 -11 -10 -11 -11 -10 -11 -11 -11 -12 -12 -11 -11 -11 -11 -11 -11 -12 -12 -12 -12 -12 -12 -12 -12 -12 -12 -12 -12 -12 -12 -12 -12 -12 -12 -12 -13 -13 -13 -13 -13
-10 -11 -11 -10 -10 -11 -11 -11 -11 -11 -11 -12 -12 -12 -11 -11 -11 -11 -11 -11 -12 -12 -12 -12 -12 -12 -12 -12 -12 -12 -12 -12 -12 -12 -12 -12 -13 -13 -13 -13 -13 -13 -13
-10 -11 -11 -11 -11 -11 -11 -11 -11 -11 -11 -11 -12 -11 -12 -12 -11 -11 -11 -12 -12 -12 -12 -12 -12 -12 -12 -12 -12 -12 -12 -12 -12 -12 -12 -12 -12 -12 -13 -13 -13 -13 -13
-10 -10 -11 -10 -11 -10 -10 -11 -12 -11 -11 -11 -11 -11 -11 -11 -11 -12 -11 -12 -12 -12 -13 -12 -12 -12 -12 -12 -12 -12 -12 -12 -12 -12 -13 -13 -13 -13 -13 -13 -13 -13 -13
-10 -10 -11 -10 -10 -10 -9 -10 -11 -12 -11 -11 -11 -11 -11 -11 -11 -11 -12 -12 -12 -12 -13 -13 -13 -13 -12 -12 -12 -12 -12 -12 -13 -13 -13 -13 -13 -13 -13 -13 -13 -13 -13
-11 -10 -10 -10 -10 -10 -10 -10 -11 -12 -12 -12 -12 -12 -11 -11 -11 -11 -12 -13 -12 -12 -12 -13 -13 -13 -13 -12 -12 -13 -13 -13 -13 -13 -13 -13 -13 -13 -13 -13 -13 -13 -13
-11 -10 -10 -10 -10 -10 -10 -10 -11 -11 -12 -12 -12 -12 -12 -11 -11 -12 -13 -13 -12 -13 -13 -13 -13 -12 -13 -13 -13 -13 -13 -13 -13 -13 -13 -13 -13 -13 -14 -13 -13 -13 -13
-11 -10 -10 -10 -10 -10 -10 -10 -11 -11 -12 -12 -12 -12 -12 -12 -12 -12 -13 -12 -12 -13 -13 -13 -13 -13 -13 -13 -13 -13 -14 -14 -13 -13 -13 -13 -13 -14 -13 -13 -13 -14 -14
-11 -11 -11 -10 -10 -10 -10 -10 -11 -11 -12 -12 -12 -12 -12 -13 -12 -12 -13 -12 -13 -13 -13 -13 -13 -13 -13 -13 -14 -13 -13 -13 -13 -13 -13 -13 -13 -13 -13 -14 -14 -14 -14
-11 -11 -11 -11 -11 -10 -10 -10 -11 -12 -12 -13 -13 -13 -13 -13 -12 -13 -12 -13 -13 -13 -13 -13 -13 -13 -13 -13 -14 -14 -13 -13 -13 -13 -13 -13 -14 -14 -14 -14 -14 -14 -14
-12 -11 -11 -11 -11 -11 -10 -11 -11 -11 -12 -13 -13 -13 -13 -13 -12 -12 -12 -13 -13 -14 -13 -13 -13 -13 -13 -14 -14 -14 -14 -13 -13 -13 -14 -14 -14 -14 -15 -14 -14 -15 -15
-12 -12 -12 -11 -11 -11 -10 -11 -11 -12 -12 -13 -13 -13 -13 -13 -12 -13 -13 -13 -13 -13 -13 -13 -13 -14 -14 -14 -14 -14 -14 -14 -14 -14 -14 -14 -14 -15 -14 -15 -15 -15 -14
-11 -11 -12 -12 -11 -11 -11 -11 -11 -12 -12 -13 -12 -13 -13 -13 -12 -13 -13 -13 -14 -14 -14 -13 -14 -14 -14 -14 -14 -14 -14 -14 -14 -14 -14 -14 -15 -15 -15 -15 -15 -15 -15
-11 -11 -11 -12 -13 -12 -12 -12 -12 -12 -12 -12 -12 -12 -12 -12 -13 -13 -13 -13 -13 -14 -14 -14 -14 -14 -14 -14 -14 -14 -14 -14 -14 -14 -15 -15 -15 -15 -15 -15 -15 -15 -15
-12 -12 -12 -12 -13 -13 -13 -12 -11 -12 -12 -12 -12 -12 -12 -13 -13 -13 -13 -13 -13 -13 -13 -13 -14 -14 -14 -14 -14 -14 -14 -14 -14 -15 -15 -15 -15 -15 -15 -15 -16 -16 -15
-12 -12 -12 -12 -12 -12 -12 -12 -11 -11 -11 -11 -12 -12 -12 -12 -13 -13 -13 -13 -13 -13 -13 -13 -14 -14 -14 -14 -14 -14 -14 -14 -15 -15 -15 -15 -15 -15 -15 -16 -16 -16 -15
-13 -13 -13 -12 -12 -12 -12 -11 -11 -11 -11 -11 -11 -12 -12 -12 -12 -13 -13 -13 -13 -13 -13 -13 -14 -14 -14 -14 -14 -14 -14 -15 -15 -16 -16 -16 -15 -16 -16 -16 -16 -16 -16
-14 -14 -14 -14 -13 -13 -13 -12 -11 -11 -11 -10 -11 -12 -11 -12 -12 -12 -12 -12 -12 -12 -13 -13 -13 -14 -14 -14 -14 -14 -15 -16 -16 -16 -16 -15 -16 -16 -16 -16 -16 -16 -16
-15 -14 -14 -14 -14 -13 -13 -12 -12 -11 -12 -11 -11 -11 -11 -12 -12 -13 -13 -12 -13 -13 -13 -14 -14 -14 -14 -14 -14 -15 -16 -16 -16 -16 -16 -16 -16 -16 -16 -17 -16 -16 -17
-15 -16 -15 -15 -15 -14 -14 -13 -12 -12 -12 -11 -11 -11 -11 -12 -13 -14 -14 -14 -14 -14 -14 -14 -14 -14 -14 -15 -15 -15 -16 -17 -16 -17 -16 -16 -16 -17 -17 -17 -17 -18 -19
-15 -15 -16 -15 -15 -15 -14 -14 -13 -13 -12 -12 -12 -11 -11 -12 -13 -13 -14 -14 -14 -14 -14 -14 -14 -14 -15 -15 -15 -16 -17 -17 -17 -17 -17 -16 -17 -17 -17 -17 -18 -19 -20
-17 -16 -16 -16 -15 -15 -15 -14 -14 -13 -12 -13 -12 -11 -11 -12 -13 -13 -14 -14 -14 -14 -14 -15 -14 -14 -15 -15 -16 -17 -17 -17 -18 -17 -17 -17 -17 -17 -18 -18 -19 -20 -21
-17 -17 -17 -17 -16 -16 -15 -15 -15 -14 -13 -13 -12 -12 -12 -12 -13 -13 -14 -14 -15 -15 -14 -15 -15 -15 -15 -15 -17 -18 -18 -18 -18 -17 -17 -17 -18 -18 -18 -19 -20 -21 -23
-18 -17 -18 -18 -17 -17 -17 -15 -16 -15 -14 -13 -13 -12 -13 -12 -13 -14 -14 -14 -15 -15 -15 -15 -15 -15 -15 -16 -17 -18 -18 -18 -18 -17 -17 -18 -18 -18 -19 -20 -21 -22 -24